Latitude: N 50° 09' 49" Longitude: W 05° 11' 53" Elevation: 168m ASL

There are 18 visitors online

Adverts

<- Previous Day | Today | Next Day ->

All Data for 14 August 2018

Time
A - D
Temp
A - D
Dew Point
A - D
Humidity
A - D
Pressure
A - D
Wind
A - D
Wind Dir Gust
A - D
Rain Rate
A - D
Rain Total
00:01 14.8 13.5 92 1016.6 1.6 W 3.8 0.0 0.0
00:02 14.8 13.5 92 1016.7 1.6 W 3.8 0.0 0.0
00:03 14.8 13.5 92 1016.6 1.6 W 3.8 0.0 0.0
00:04 14.8 13.5 92 1016.8 1.6 W 3.8 0.0 0.0
00:05 14.8 13.5 92 1016.7 1.6 W 3.1 0.0 0.0
00:06 14.8 13.5 92 1016.6 1.6 W 3.1 0.0 0.0
00:07 14.8 13.5 92 1016.7 2.2 SW 3.1 0.0 0.0
00:08 14.8 13.5 92 1016.7 2.2 SW 3.1 0.0 0.0
00:09 14.8 13.5 92 1016.7 2.2 SW 2.2 0.0 0.0
00:10 14.8 13.5 92 1016.7 2.2 SW 2.2 0.0 0.0
00:11 14.8 13.5 92 1016.7 2.2 W 2.2 0.0 0.0
00:12 14.8 13.5 92 1016.8 3.1 SW 3.1 0.0 0.0
00:13 14.8 13.5 92 1016.8 2.2 SW 3.1 0.0 0.0
00:14 14.7 13.4 92 1016.7 3.1 SW 3.1 0.0 0.0
00:15 14.7 13.4 92 1016.8 2.2 W 3.1 0.0 0.0
00:16 14.7 13.4 92 1016.7 2.2 SW 3.1 0.0 0.0
00:17 14.7 13.6 93 1016.8 3.1 SW 3.1 0.0 0.0
00:18 14.7 13.4 92 1016.9 3.1 W 3.1 0.0 0.0
00:19 14.7 13.4 92 1016.6 2.2 WSW 3.1 0.0 0.0
00:20 14.7 13.4 92 1016.8 2.2 SSW 3.1 0.0 0.0
00:21 14.7 13.6 93 1016.8 5.4 SW 5.4 0.0 0.0
00:22 14.7 13.6 93 1016.8 3.1 SW 5.4 0.0 0.0
00:24 14.7 13.6 93 1016.7 3.1 W 5.4 0.0 0.0
00:25 14.7 13.6 93 1016.9 3.8 W 5.4 0.0 0.0
00:26 14.7 13.6 93 1016.7 5.4 W 5.4 0.0 0.0
00:27 14.7 13.6 93 1016.9 3.8 W 5.4 0.0 0.0
00:28 14.7 13.6 93 1016.9 3.1 W 5.4 0.0 0.0
00:29 14.7 13.6 93 1016.8 3.1 W 5.4 0.0 0.0
00:30 14.7 13.6 93 1016.7 3.8 NW 5.4 0.0 0.0
00:31 14.7 13.6 93 1016.8 3.1 SW 5.4 0.0 0.0
00:32 14.7 13.6 93 1016.8 3.1 SW 5.4 0.0 0.0
00:33 14.7 13.6 93 1016.9 3.1 W 5.4 0.0 0.0
00:34 14.7 13.6 93 1016.8 3.1 WNW 5.4 0.0 0.0
00:35 14.7 13.6 93 1016.9 3.1 W 5.4 0.0 0.0
00:36 14.7 13.6 93 1016.9 3.1 W 5.4 0.0 0.0
00:37 14.7 13.6 93 1016.8 3.8 W 4.5 0.0 0.0
00:38 14.7 13.6 93 1016.9 3.1 W 4.5 0.0 0.0
00:39 14.8 13.7 93 1016.8 3.1 W 4.5 0.0 0.0
00:40 14.7 13.6 93 1016.9 3.1 W 4.5 0.0 0.0
00:41 14.8 13.7 93 1016.8 2.2 W 3.8 0.0 0.0
00:42 14.8 13.7 93 1016.9 3.1 SW 3.8 0.0 0.0
00:43 14.8 13.7 93 1016.9 3.1 SW 3.8 0.0 0.0
00:44 14.8 13.7 93 1016.8 4.5 W 4.5 0.0 0.0
00:45 14.8 13.7 93 1016.9 3.1 W 4.5 0.0 0.0
00:46 14.8 13.7 93 1016.9 5.4 SW 5.4 0.0 0.0
00:49 14.8 13.7 93 1017.0 3.8 W 5.4 0.0 0.0
00:50 14.8 13.7 93 1016.9 2.2 W 5.4 0.0 0.0
00:51 14.8 13.7 93 1016.9 4.5 SW 5.4 0.0 0.0
00:52 14.8 13.7 93 1016.9 4.5 SW 5.4 0.0 0.0
00:53 14.8 13.9 94 1017.0 3.1 W 5.4 0.0 0.0
00:54 14.8 13.9 94 1016.9 3.8 SW 5.4 0.0 0.0
00:55 14.8 13.9 94 1017.0 3.1 W 5.4 0.0 0.0
00:56 14.8 13.9 94 1017.0 4.5 SW 5.4 0.0 0.0
00:57 14.8 13.9 94 1016.9 5.4 NW 5.4 0.0 0.0
00:58 14.8 13.9 94 1016.9 3.8 W 5.4 0.0 0.0
00:59 14.8 13.9 94 1017.1 3.8 SW 5.4 0.0 0.0
01:00 14.8 13.9 94 1017.0 3.1 W 5.4 0.0 0.0
01:01 14.8 13.9 94 1017.1 3.1 W 5.4 0.0 0.0
01:02 14.8 13.9 94 1017.1 3.1 W 5.4 0.0 0.0
01:03 14.8 13.9 94 1016.9 3.1 W 5.4 0.0 0.0
01:04 14.8 13.9 94 1017.0 3.1 W 5.4 0.0 0.0
01:05 14.8 13.9 94 1017.1 3.1 W 5.4 0.0 0.0
01:06 14.8 13.9 94 1017.0 3.1 SW 5.4 0.0 0.0
01:07 14.8 13.9 94 1017.0 3.8 SW 5.4 0.0 0.0
01:08 14.8 13.9 94 1016.9 3.8 SW 3.8 0.0 0.0
01:09 14.8 13.9 94 1017.0 3.1 SW 3.8 0.0 0.0
01:10 14.8 13.9 94 1017.1 3.1 W 3.8 0.0 0.0
01:11 14.8 13.9 94 1017.0 3.1 WSW 3.8 0.0 0.0
01:12 14.8 13.9 94 1017.0 6.9 SW 6.9 0.0 0.0
01:13 14.8 13.9 94 1016.9 3.8 SW 6.9 0.0 0.0
01:14 14.8 13.9 94 1017.0 6.0 SW 6.9 0.0 0.0
01:15 14.8 13.9 94 1017.1 2.2 SW 6.9 0.0 0.0
01:16 14.7 13.8 94 1017.0 4.5 WSW 6.9 0.0 0.0
01:17 14.7 13.8 94 1017.0 4.5 WSW 6.9 0.0 0.0
01:18 14.7 13.8 94 1017.0 4.5 SW 6.9 0.0 0.0
01:19 14.7 13.8 94 1016.8 3.8 W 6.9 0.0 0.0
01:21 14.7 13.8 94 1017.2 3.8 W 6.9 0.0 0.0
01:22 14.7 13.8 94 1017.1 4.5 W 6.9 0.0 0.0
01:23 14.7 13.8 94 1017.1 3.8 SW 6.9 0.0 0.0
01:24 14.7 13.8 94 1017.2 3.8 W 6.0 0.0 0.0
01:25 14.7 13.8 94 1017.2 4.5 SW 4.5 0.0 0.0
01:26 14.7 13.8 94 1017.2 3.1 SW 4.5 0.0 0.0
01:27 14.7 13.8 94 1017.1 4.5 SW 4.5 0.0 0.0
01:28 14.7 13.8 94 1017.1 3.8 SW 4.5 0.0 0.0
01:29 14.7 13.8 94 1017.1 2.2 NW 4.5 0.0 0.0
01:30 14.8 13.9 94 1017.2 3.8 W 4.5 0.0 0.0
01:31 14.8 13.9 94 1017.2 2.2 W 4.5 0.0 0.0
01:32 14.8 14.0 95 1017.1 2.2 SW 4.5 0.0 0.0
01:33 14.8 14.0 95 1017.2 3.8 SW 4.5 0.0 0.0
01:34 14.8 14.0 95 1017.2 2.2 SW 4.5 0.0 0.0
01:35 14.8 14.0 95 1017.1 2.2 NW 4.5 0.0 0.0
01:36 14.8 14.0 95 1017.1 3.1 SW 4.5 0.0 0.0
01:37 14.8 14.0 95 1017.0 3.8 W 3.8 0.0 0.0
01:38 14.8 14.0 95 1017.1 3.1 SW 3.8 0.0 0.0
01:39 14.9 14.1 95 1017.1 2.2 SW 3.8 0.0 0.0
01:40 14.9 14.1 95 1017.1 3.1 SW 3.8 0.0 0.0
01:41 14.9 14.1 95 1017.1 2.2 SW 3.8 0.0 0.0
01:42 14.9 14.1 95 1017.1 2.2 SW 3.8 0.0 0.0
01:43 14.9 14.1 95 1017.1 3.1 WSW 3.8 0.0 0.0
01:44 14.9 14.1 95 1017.1 3.8 SW 3.8 0.0 0.0
01:45 14.9 14.1 95 1016.9 2.2 NW 3.8 0.0 0.0
01:46 14.9 14.1 95 1017.0 3.8 W 3.8 0.0 0.0
01:47 14.9 14.1 95 1017.0 3.8 SW 3.8 0.0 0.0
01:48 14.9 14.1 95 1016.8 4.5 S 4.5 0.0 0.0
01:49 14.9 14.1 95 1016.9 4.5 W 4.5 0.0 0.0
01:50 14.9 14.1 95 1017.0 3.8 SW 4.5 0.0 0.0
01:51 15.0 14.2 95 1017.0 3.8 S 4.5 0.0 0.0
01:53 15.0 14.2 95 1016.9 3.1 W 4.5 0.0 0.0
01:54 15.0 14.2 95 1017.0 3.1 S 4.5 0.0 0.0
01:55 15.0 14.2 95 1017.1 3.1 SW 4.5 0.0 0.0
01:56 15.0 14.2 95 1017.1 3.1 SW 4.5 0.0 0.0
01:57 15.0 14.2 95 1017.1 3.8 SW 4.5 0.0 0.0
01:58 15.0 14.4 96 1017.1 3.1 SW 4.5 0.0 0.0
01:59 15.0 14.4 96 1017.1 3.1 SW 4.5 0.0 0.0
02:00 15.0 14.4 96 1017.1 2.2 SW 4.5 0.0 0.0
02:01 15.0 14.4 96 1017.1 3.8 SW 3.8 0.0 0.0
02:02 15.0 14.4 96 1017.1 3.8 SW 3.8 0.0 0.0
02:03 15.0 14.4 96 1017.2 3.8 SW 3.8 0.0 0.0
02:04 15.0 14.4 96 1017.2 3.8 SW 3.8 0.0 0.0
02:05 15.0 14.4 96 1017.1 3.8 SW 3.8 0.0 0.0
02:06 15.0 14.4 96 1017.2 3.1 SW 3.8 0.0 0.0
02:07 15.1 14.5 96 1017.2 2.2 S 3.8 0.0 0.0
02:08 15.0 14.4 96 1017.2 3.1 SW 3.8 0.0 0.0
02:09 15.1 14.5 96 1017.2 3.1 W 3.8 0.0 0.0
02:10 15.1 14.5 96 1017.1 3.1 SW 3.8 0.0 0.0
02:11 15.1 14.5 96 1017.1 3.1 SW 3.8 0.0 0.0
02:12 15.1 14.5 96 1017.1 3.1 W 3.8 0.0 0.0
02:13 15.1 14.5 96 1017.1 3.1 W 3.8 0.0 0.0
02:14 15.1 14.5 96 1017.0 3.1 SW 3.8 0.0 0.0
02:15 15.1 14.5 96 1017.1 2.2 SW 3.8 0.0 0.0
02:17 15.1 14.5 96 1017.0 2.2 S 3.1 0.0 0.0
02:18 15.1 14.5 96 1017.0 2.2 S 3.1 0.0 0.0
02:19 15.1 14.5 96 1017.1 3.1 SW 3.1 0.0 0.0
02:20 15.1 14.5 96 1016.9 3.1 WSW 3.1 0.0 0.0
02:21 15.1 14.5 96 1017.0 2.2 W 3.1 0.0 0.0
02:22 15.1 14.5 96 1017.0 2.2 SW 3.1 0.0 0.0
02:23 15.1 14.5 96 1017.0 2.2 SW 3.1 0.0 0.0
02:24 15.1 14.5 96 1017.1 2.2 W 3.1 0.0 0.0
02:25 15.1 14.5 96 1017.0 1.6 W 3.1 0.0 0.0
02:26 15.1 14.5 96 1017.0 2.2 SW 3.1 0.0 0.0
02:27 15.1 14.5 96 1017.1 2.2 SW 3.1 0.0 0.0
03:11 15.4 14.9 97 1017.1 3.8 SW 6.0 0.0 0.0
03:12 15.4 14.9 97 1017.2 3.8 WSW 6.0 0.0 0.0
03:13 15.4 14.9 97 1017.2 4.5 S 6.0 0.0 0.0
03:14 15.5 15.0 97 1017.2 3.8 SW 6.0 0.0 0.0
03:15 15.5 15.0 97 1017.2 3.1 NW 6.0 0.0 0.0
03:16 15.5 15.0 97 1017.1 4.5 SW 6.0 0.0 0.0
03:17 15.5 15.0 97 1017.2 5.4 W 6.0 0.0 0.0
03:18 15.5 15.0 97 1017.2 4.5 SW 6.0 0.0 0.0
03:19 15.5 15.0 97 1017.2 3.8 SW 5.4 0.0 0.0
03:20 15.5 15.0 97 1017.1 3.1 SW 5.4 0.0 0.0
03:21 15.6 15.1 97 1017.2 3.8 S 5.4 0.0 0.0
03:22 15.6 15.1 97 1017.1 5.4 W 5.4 0.0 0.0
03:23 15.6 15.1 97 1017.1 3.8 W 5.4 0.0 0.0
03:24 15.6 15.1 97 1017.2 3.8 W 5.4 0.0 0.0
03:25 15.6 15.1 97 1017.3 4.5 SW 5.4 0.0 0.0
03:26 15.6 15.1 97 1017.1 3.8 W 5.4 0.0 0.0
03:27 15.6 15.1 97 1017.3 4.5 SW 5.4 0.0 0.0
03:28 15.6 15.1 97 1017.2 3.8 WSW 5.4 0.0 0.0
03:29 15.7 15.2 97 1017.2 3.1 SE 5.4 0.0 0.0
03:30 15.7 15.2 97 1017.3 3.1 SW 5.4 0.0 0.0
03:31 15.7 15.2 97 1017.2 4.5 SW 5.4 0.0 0.0
03:32 15.7 15.2 97 1017.2 3.1 W 4.5 0.0 0.0
03:33 15.7 15.2 97 1017.2 3.1 W 4.5 0.0 0.0
03:34 15.7 15.4 98 1017.1 3.1 SW 4.5 0.0 0.0
03:35 15.7 15.4 98 1017.1 3.8 SW 4.5 0.0 0.0
03:36 15.7 15.2 97 1017.2 3.1 NW 4.5 0.0 0.0
03:37 15.7 15.4 98 1017.2 2.2 SW 4.5 0.0 0.0
03:38 15.7 15.4 98 1017.2 3.1 W 4.5 0.0 0.0
03:39 15.7 15.4 98 1017.1 2.2 N 4.5 0.0 0.0
03:40 15.7 15.4 98 1017.2 1.6 N 4.5 0.0 0.0
03:41 15.8 15.5 98 1017.1 1.6 SW 4.5 0.0 0.0
03:42 15.8 15.5 98 1017.2 1.6 S 3.8 0.0 0.0
03:43 15.8 15.5 98 1017.3 3.1 S 3.8 0.0 0.0
03:44 15.8 15.5 98 1017.2 2.2 S 3.8 0.0 0.0
03:45 15.8 15.5 98 1017.1 2.2 SW 3.8 0.0 0.0
03:46 15.8 15.5 98 1017.1 2.2 WSW 3.1 0.0 0.0
03:47 15.8 15.5 98 1017.3 2.2 SW 3.1 0.0 0.0
03:48 15.8 15.5 98 1017.2 3.8 SW 3.8 0.0 0.0
03:49 15.8 15.5 98 1017.2 3.1 SW 3.8 0.0 0.0
03:50 15.8 15.5 98 1017.3 2.2 SW 3.8 0.0 0.0
03:51 15.8 15.5 98 1017.1 2.2 S 3.8 0.0 0.0
03:53 15.8 15.5 98 1017.1 2.2 S 3.8 0.0 0.0
03:54 15.8 15.5 98 1017.2 3.8 SW 3.8 0.0 0.0
03:55 15.8 15.5 98 1017.2 3.8 SW 3.8 0.0 0.0
03:56 15.8 15.5 98 1017.1 2.2 SW 3.8 0.0 0.0
03:57 15.8 15.5 98 1017.1 3.1 SW 3.8 0.0 0.0
03:58 15.8 15.5 98 1016.9 3.1 SW 3.8 0.0 0.0
03:59 15.8 15.5 98 1017.1 3.1 SE 3.8 0.0 0.0
04:00 15.8 15.5 98 1017.3 3.1 S 3.8 0.0 0.0
04:01 15.8 15.5 98 1017.3 3.1 S 3.8 0.0 0.0
04:02 15.8 15.5 98 1017.2 3.1 S 3.8 0.0 0.0
04:03 15.8 15.5 98 1017.2 3.1 S 3.8 0.0 0.0
04:04 15.8 15.5 98 1017.2 3.1 S 3.8 0.0 0.0
04:05 15.8 15.5 98 1017.2 3.1 S 3.8 0.0 0.0
04:06 15.8 15.5 98 1017.2 3.1 S 3.1 0.0 0.0
04:07 15.8 15.5 98 1017.2 3.1 S 3.1 0.0 0.0
04:08 15.8 15.5 98 1017.3 3.1 S 3.1 0.0 0.0
04:09 15.8 15.5 98 1017.3 3.1 S 3.1 0.0 0.0
04:10 15.8 15.5 98 1017.2 3.8 SW 3.8 0.0 0.0
04:11 15.8 15.5 98 1017.3 3.1 SE 3.8 0.0 0.0
04:12 15.8 15.5 98 1017.2 2.2 S 3.8 0.0 0.0
04:13 15.8 15.5 98 1017.2 3.1 SW 3.8 0.0 0.0
04:14 15.8 15.5 98 1017.3 3.8 SW 3.8 0.0 0.0
04:15 15.8 15.5 98 1017.3 3.8 SW 3.8 0.0 0.0
04:16 15.8 15.5 98 1017.2 3.8 S 3.8 0.8 0.1
04:17 15.8 15.5 98 1017.2 3.1 S 3.8 0.8 0.1
04:18 15.8 15.5 98 1017.2 3.1 SW 3.8 0.8 0.1
04:19 15.9 15.6 98 1017.1 3.8 S 3.8 0.8 0.1
04:21 15.9 15.6 98 1017.2 3.1 SW 3.8 0.0 0.1
04:22 15.9 15.6 98 1016.9 3.1 SW 3.8 0.0 0.1
04:23 15.9 15.6 98 1017.0 3.1 S 3.8 0.0 0.1
04:24 15.9 15.6 98 1017.0 4.5 SW 4.5 0.0 0.1
04:25 15.9 15.8 99 1017.1 3.8 S 4.5 0.0 0.1
04:26 15.9 15.6 98 1017.0 3.8 S 4.5 0.0 0.1
04:27 15.9 15.8 99 1017.0 3.1 S 4.5 0.0 0.1
04:28 15.9 15.8 99 1017.0 3.1 S 4.5 0.0 0.1
04:29 15.9 15.8 99 1017.1 2.2 S 4.5 0.0 0.1
04:30 15.9 15.8 99 1017.0 2.2 SW 4.5 0.0 0.1
04:31 15.9 15.8 99 1016.9 2.2 S 4.5 0.0 0.1
04:32 15.9 15.8 99 1017.1 3.8 W 4.5 0.8 0.1
04:33 15.9 15.8 99 1017.0 3.1 S 4.5 0.8 0.1
04:34 15.9 15.8 99 1016.9 1.6 S 4.5 0.8 0.1
04:35 15.9 15.8 99 1017.0 1.6 W 3.8 0.8 0.1
04:36 15.9 15.8 99 1016.9 2.2 S 3.8 0.8 0.1
04:37 15.9 15.8 99 1017.2 3.1 SW 3.8 0.0 0.1
04:38 15.9 15.8 99 1017.1 3.1 S 3.8 0.0 0.1
04:39 15.9 15.8 99 1017.1 3.1 SE 3.8 0.0 0.1
04:40 15.9 15.8 99 1017.1 2.2 S 3.8 0.0 0.1
04:41 15.9 15.8 99 1017.1 3.1 SE 3.8 0.0 0.1
04:43 15.9 15.8 99 1017.1 3.1 S 3.8 0.8 0.2
04:44 15.9 15.8 99 1017.0 3.1 S 3.8 0.8 0.2
04:45 15.9 15.8 99 1017.2 3.8 SW 3.8 0.8 0.2
04:46 15.9 15.8 99 1017.1 3.1 S 3.8 0.8 0.2
04:47 15.9 15.8 99 1017.3 3.8 S 3.8 0.8 0.2
04:48 15.9 15.8 99 1017.1 3.1 SW 3.8 0.0 0.2
04:49 15.9 15.8 99 1017.1 2.2 SSE 3.8 0.0 0.2
04:50 15.9 15.8 99 1017.1 3.8 SW 3.8 0.0 0.2
04:51 15.9 15.8 99 1017.1 3.1 SW 3.8 0.0 0.2
04:52 15.9 15.8 99 1017.1 3.1 SW 3.8 0.0 0.2
04:53 15.9 15.8 99 1017.3 2.2 S 3.8 0.0 0.2
04:54 15.9 15.8 99 1017.0 3.1 S 3.8 0.0 0.2
04:55 15.9 15.8 99 1017.2 3.8 SSW 3.8 0.0 0.2
04:56 15.9 15.8 99 1017.1 2.2 S 3.8 0.0 0.2
04:57 15.9 15.8 99 1017.1 3.8 SE 3.8 0.0 0.2
04:58 15.9 15.8 99 1017.1 3.1 S 3.8 0.8 0.3
04:59 15.9 15.8 99 1017.2 3.1 W 3.8 0.8 0.3
05:00 15.9 15.8 99 1017.3 3.1 S 3.8 0.8 0.3
05:01 15.9 15.8 99 1017.2 3.1 S 3.8 0.8 0.3
05:02 15.9 15.8 99 1017.3 4.5 S 4.5 0.8 0.3
05:03 15.9 15.8 99 1017.3 3.1 S 4.5 0.8 0.3
05:04 15.9 15.8 99 1017.3 4.5 S 4.5 0.8 0.3
05:05 15.9 15.8 99 1017.3 3.8 SW 4.5 0.8 0.3
05:06 15.9 15.8 99 1017.3 3.1 WNW 4.5 0.8 0.3
05:07 15.9 15.8 99 1017.3 4.5 SW 4.5 0.8 0.3
05:08 15.9 15.8 99 1017.2 7.6 S 7.6 0.0 0.3
05:09 15.9 15.8 99 1017.3 6.9 SW 7.6 0.0 0.3
05:10 15.9 15.8 99 1017.3 7.6 W 7.6 0.0 0.3
05:11 15.9 15.8 99 1017.3 6.0 SW 7.6 0.0 0.3
05:12 16.0 15.9 99 1017.3 5.4 SW 7.6 0.0 0.3
05:13 16.0 15.9 99 1017.4 7.6 W 7.6 0.0 0.3
05:14 16.0 15.9 99 1017.4 8.3 WSW 8.3 0.0 0.4
05:15 16.0 15.9 99 1017.3 7.6 W 8.3 0.8 0.4
05:16 16.1 16.0 99 1017.3 7.6 SW 8.3 0.8 0.4
05:17 16.1 16.0 99 1017.4 6.9 W 8.3 0.8 0.4
05:18 16.1 16.0 99 1017.5 8.3 WNW 8.3 0.8 0.4
05:19 16.2 16.1 99 1017.4 6.9 SW 8.3 0.8 0.4
05:20 16.2 16.1 99 1017.5 9.8 SW 9.8 0.0 0.4
05:21 16.2 16.1 99 1017.5 9.2 WNW 9.8 0.0 0.4
05:22 16.2 16.1 99 1017.4 9.2 W 9.8 0.0 0.4
05:23 16.3 16.2 99 1017.5 6.0 SW 9.8 0.8 0.4
05:24 16.3 16.2 99 1017.4 6.9 SW 9.8 0.8 0.4
05:25 16.3 16.2 99 1017.5 8.3 SW 9.8 0.8 0.4
05:26 16.3 16.2 99 1017.4 11.4 WSW 11.4 0.8 0.4
05:27 16.3 16.2 99 1017.5 8.3 NW 11.4 0.8 0.4
05:28 16.3 16.2 99 1017.4 8.3 S 11.4 0.0 0.4
05:29 16.3 16.2 99 1017.5 7.6 SW 11.4 0.0 0.4
05:30 16.3 16.2 99 1017.4 9.8 S 11.4 0.0 0.4
05:31 16.3 16.2 99 1017.4 10.7 SW 11.4 0.0 0.4
05:32 16.3 16.2 99 1017.4 9.8 SW 11.4 0.0 0.4
05:33 16.3 16.2 99 1017.4 11.4 SW 11.4 0.0 0.4
05:34 16.3 16.2 99 1017.5 7.6 W 11.4 0.0 0.4
05:35 16.3 16.2 99 1017.4 8.3 N 11.4 0.0 0.4
05:36 16.3 16.2 99 1017.6 13.0 SW 13.0 0.0 0.4
05:37 16.3 16.2 99 1017.4 8.3 SW 13.0 0.0 0.4
05:38 16.3 16.2 99 1017.5 8.3 SW 13.0 0.0 0.4
05:39 16.3 16.2 99 1017.5 8.3 SW 13.0 0.0 0.4
05:40 16.3 16.2 99 1017.7 8.3 N 13.0 0.0 0.4
05:41 16.3 16.2 99 1017.7 8.3 N 13.0 0.0 0.4
05:42 16.3 16.2 99 1017.5 6.9 SW 13.0 0.0 0.4
05:43 16.3 16.2 99 1017.4 8.3 SW 13.0 0.0 0.4
05:44 16.3 16.2 99 1017.6 9.2 W 13.0 0.0 0.4
05:45 16.3 16.2 99 1017.4 9.2 NW 13.0 0.0 0.4
05:46 16.3 16.2 99 1017.6 7.6 W 13.0 0.0 0.4
05:47 16.3 16.2 99 1017.6 7.6 NW 9.2 0.0 0.4
05:48 16.3 16.2 99 1017.7 7.6 SW 9.2 0.0 0.4
05:49 16.3 16.2 99 1017.6 8.3 W 9.2 0.0 0.4
05:50 16.3 16.2 99 1017.6 6.9 SW 9.2 0.0 0.4
05:52 16.3 16.2 99 1017.6 9.2 NW 9.2 0.0 0.4
05:53 16.3 16.2 99 1017.6 5.4 W 9.2 0.0 0.4
05:54 16.3 16.2 99 1017.5 4.5 WSW 9.2 0.0 0.4
05:55 16.3 16.2 99 1017.6 3.8 W 9.2 0.0 0.4
05:56 16.3 16.2 99 1017.6 6.9 W 9.2 0.0 0.4
05:57 16.3 16.2 99 1017.6 5.4 E 9.2 0.0 0.4
05:58 16.3 16.2 99 1017.6 3.8 SW 9.2 0.0 0.4
05:59 16.3 16.2 99 1017.5 6.0 SW 9.2 0.0 0.4
06:00 16.4 16.3 99 1017.8 9.2 SW 9.2 0.0 0.4
06:01 16.4 16.3 99 1017.7 9.2 SW 9.2 0.0 0.4
06:02 16.3 16.2 99 1017.7 6.9 W 9.2 0.0 0.4
06:03 16.4 16.3 99 1017.5 10.7 NW 10.7 0.0 0.4
06:04 16.4 16.3 99 1017.7 9.8 NW 10.7 0.0 0.4
06:05 16.4 16.3 99 1017.7 6.0 W 10.7 0.0 0.4
06:06 16.4 16.3 99 1017.7 4.5 W 10.7 0.0 0.4
06:07 16.4 16.3 99 1017.7 6.9 SW 10.7 0.0 0.4
06:09 16.4 16.3 99 1017.8 6.0 W 10.7 0.0 0.4
06:10 16.4 16.3 99 1017.7 5.4 W 10.7 0.0 0.4
06:11 16.4 16.3 99 1017.6 11.4 NW 11.4 0.0 0.4
06:12 16.4 16.3 99 1017.7 6.9 W 11.4 0.0 0.4
06:13 16.4 16.3 99 1017.8 6.0 W 11.4 0.0 0.4
06:14 16.4 16.3 99 1017.8 7.6 SW 11.4 0.0 0.4
06:15 16.4 16.3 99 1017.7 6.9 SW 11.4 0.0 0.4
06:16 16.4 16.3 99 1017.7 6.9 SW 11.4 0.0 0.4
06:17 16.4 16.3 99 1017.8 3.8 W 11.4 0.0 0.4
06:18 16.4 16.3 99 1017.8 7.6 N 11.4 0.0 0.4
06:19 16.4 16.3 99 1017.8 5.4 NW 11.4 0.0 0.4
06:20 16.4 16.3 99 1017.8 9.2 SW 11.4 0.0 0.4
06:21 16.3 16.2 99 1017.8 6.9 SW 11.4 0.0 0.4
06:22 16.4 16.3 99 1017.8 6.9 SW 9.2 0.0 0.4
06:23 16.3 16.2 99 1017.9 5.4 W 9.2 0.0 0.4
06:25 16.4 16.3 99 1017.9 3.1 W 9.2 0.0 0.4
06:26 16.4 16.3 99 1017.7 4.5 SW 9.2 0.0 0.4
06:27 16.4 16.3 99 1017.9 5.4 S 9.2 0.0 0.4
06:28 16.4 16.3 99 1018.0 7.6 W 9.2 0.0 0.4
06:29 16.3 16.2 99 1018.0 6.0 W 9.2 0.0 0.4
06:30 16.4 16.3 99 1018.1 6.9 NW 7.6 0.0 0.4
06:31 16.4 16.3 99 1017.9 9.2 WSW 9.2 0.0 0.4
06:32 16.4 16.3 99 1017.9 6.0 S 9.2 0.0 0.4
06:33 16.4 16.3 99 1018.0 6.9 SW 9.2 0.0 0.4
06:34 16.4 16.3 99 1018.0 6.0 NW 9.2 0.0 0.4
06:35 16.4 16.3 99 1018.0 8.3 NW 9.2 0.0 0.4
06:36 16.4 16.3 99 1018.0 6.9 SW 9.2 0.0 0.4
06:37 16.4 16.3 99 1018.1 7.6 W 9.2 0.0 0.4
06:38 16.4 16.3 99 1018.2 5.4 SW 9.2 0.0 0.4
06:39 16.4 16.3 99 1018.0 6.0 SW 9.2 0.0 0.4
06:40 16.2 16.1 99 1018.2 4.5 W 9.2 0.0 0.4
06:42 16.4 16.3 99 1018.2 3.1 W 8.3 0.0 0.4
06:43 16.4 16.3 99 1018.3 4.5 SW 8.3 0.0 0.4
06:44 16.4 16.3 99 1018.2 3.1 SW 8.3 0.0 0.4
06:45 16.4 16.3 99 1018.1 5.4 SW 7.6 0.0 0.4
06:46 16.4 16.3 99 1018.2 6.0 SW 7.6 0.0 0.4
06:47 16.4 16.3 99 1018.3 7.6 SW 7.6 0.0 0.4
06:48 16.4 16.3 99 1018.1 6.0 NW 7.6 0.0 0.4
06:49 16.4 16.3 99 1018.3 4.5 W 7.6 0.0 0.4
06:50 16.4 16.3 99 1018.1 3.8 SW 7.6 0.0 0.4
06:51 16.4 16.3 99 1018.1 6.0 W 7.6 0.0 0.4
06:52 16.4 16.3 99 1018.2 4.5 W 7.6 0.0 0.4
06:53 16.4 16.3 99 1018.3 3.1 W 7.6 0.0 0.4
06:54 16.4 16.3 99 1018.2 6.0 S 7.6 0.0 0.4
06:55 16.4 16.3 99 1018.2 5.4 W 7.6 0.0 0.4
06:56 16.4 16.3 99 1018.2 5.4 SW 7.6 0.0 0.4
06:57 16.4 16.3 99 1018.3 3.8 W 7.6 0.0 0.4
06:58 16.4 16.3 99 1018.1 3.8 SW 7.6 0.0 0.4
06:59 16.4 16.3 99 1018.3 3.8 SW 7.6 0.0 0.4
07:00 16.4 16.3 99 1018.4 6.0 NW 7.6 0.0 0.4
07:01 16.4 16.3 99 1018.3 6.0 NW 7.6 0.0 0.4
07:02 16.4 16.3 99 1018.3 5.4 S 7.6 0.0 0.4
07:03 16.4 16.3 99 1018.3 8.3 SW 8.3 0.0 0.4
07:04 16.4 16.3 99 1018.3 5.4 W 8.3 0.0 0.4
07:05 16.4 16.3 99 1018.5 6.9 SW 8.3 0.0 0.4
07:07 16.4 16.3 99 1018.3 8.3 W 8.3 0.0 0.4
07:08 16.4 16.3 99 1018.5 9.8 NW 9.8 0.0 0.4
07:09 16.5 16.4 99 1018.3 6.0 WSW 9.8 0.0 0.4
07:10 16.5 16.4 99 1018.5 6.0 NW 9.8 0.0 0.4
07:11 16.5 16.4 99 1018.4 6.9 W 9.8 0.0 0.4
07:12 16.5 16.4 99 1018.5 5.4 W 9.8 0.0 0.4
07:13 16.5 16.4 99 1018.5 5.4 W 9.8 0.0 0.4
07:14 16.5 16.4 99 1018.4 4.5 W 9.8 0.0 0.4
07:15 16.5 16.4 99 1018.4 3.8 WSW 9.8 0.0 0.4
07:16 16.5 16.4 99 1018.4 6.0 NW 9.8 0.0 0.4
07:17 16.5 16.4 99 1018.4 7.6 SW 9.8 0.0 0.4
07:18 16.5 16.4 99 1018.5 6.0 SW 9.8 0.0 0.4
07:19 16.5 16.4 99 1018.4 4.5 NW 7.6 0.0 0.4
07:20 16.5 16.4 99 1018.5 6.0 W 7.6 0.0 0.4
07:21 16.5 16.4 99 1018.4 6.9 SW 7.6 0.0 0.4
07:22 16.6 16.5 99 1018.5 6.0 WSW 7.6 0.0 0.4
07:23 16.6 16.5 99 1018.5 6.9 W 7.6 0.0 0.4
07:24 16.6 16.5 99 1018.6 6.0 W 7.6 0.0 0.4
07:26 16.6 16.5 99 1018.4 2.2 SW 7.6 0.0 0.4
07:27 16.6 16.5 99 1018.5 1.6 SW 7.6 0.0 0.4
07:28 16.6 16.5 99 1018.4 5.4 S 7.6 0.0 0.4
07:29 16.6 16.5 99 1018.4 4.5 SW 7.6 0.0 0.4
07:30 16.6 16.5 99 1018.5 4.5 SW 7.6 0.0 0.4
07:31 16.6 16.5 99 1018.5 5.4 WNW 7.6 0.0 0.4
07:32 16.6 16.5 99 1018.6 3.8 SW 6.9 0.0 0.4
07:33 16.6 16.5 99 1018.5 5.4 W 6.9 0.0 0.4
07:34 16.6 16.5 99 1018.5 6.9 S 6.9 0.0 0.4
07:35 16.7 16.6 99 1018.4 9.8 S 9.8 0.0 0.4
07:36 16.6 16.5 99 1018.4 6.0 W 9.8 0.0 0.4
07:37 16.7 16.6 99 1018.5 2.2 SW 9.8 0.0 0.4
07:38 16.7 16.6 99 1018.4 6.0 SW 9.8 0.0 0.4
07:39 16.7 16.6 99 1018.5 9.2 SW 9.8 0.0 0.4
07:40 16.7 16.6 99 1018.5 9.8 SW 9.8 0.0 0.4
07:41 16.7 16.6 99 1018.5 11.4 SW 11.4 0.0 0.4
07:42 16.7 16.6 99 1018.6 7.6 NW 11.4 0.0 0.4
07:43 16.7 16.6 99 1018.6 7.6 W 11.4 0.0 0.4
07:44 16.7 16.6 99 1018.5 8.3 S 11.4 0.0 0.4
07:46 16.7 16.6 99 1018.4 6.9 W 11.4 0.0 0.4
07:47 16.7 16.6 99 1018.4 4.5 SW 11.4 0.0 0.4
07:48 16.7 16.6 99 1018.5 6.0 SW 11.4 0.0 0.4
07:49 16.7 16.6 99 1018.5 7.6 SW 11.4 0.0 0.4
07:50 16.7 16.6 99 1018.4 5.4 SW 11.4 0.0 0.4
07:51 16.7 16.6 99 1018.6 6.9 S 9.8 0.0 0.4
07:52 16.7 16.6 99 1018.5 5.4 W 9.8 0.0 0.4
07:53 16.7 16.6 99 1018.5 5.4 W 9.8 0.0 0.4
07:54 16.7 16.6 99 1018.6 4.5 SW 9.8 0.0 0.4
07:55 16.7 16.6 99 1018.6 3.1 NW 9.8 0.0 0.4
07:56 16.7 16.6 99 1018.5 3.8 WNW 9.8 0.0 0.4
07:57 16.7 16.6 99 1018.5 5.4 WSW 9.8 0.0 0.4
07:58 16.8 16.7 99 1018.6 5.4 SW 9.8 0.0 0.4
07:59 16.7 16.6 99 1018.5 6.9 SW 7.6 0.0 0.4
08:00 16.8 16.7 99 1018.6 5.4 W 6.9 0.0 0.4
08:01 16.8 16.7 99 1018.6 5.4 W 6.9 0.0 0.4
08:02 16.8 16.7 99 1018.7 6.9 W 6.9 0.0 0.4
08:03 16.8 16.7 99 1018.7 5.4 N 6.9 0.0 0.4
08:04 16.8 16.7 99 1018.7 6.0 S 6.9 0.0 0.4
08:05 16.8 16.7 99 1018.7 8.3 SW 10.7 0.0 0.4
08:06 16.8 16.7 99 1018.8 6.0 SW 10.7 0.0 0.4
08:07 16.8 16.7 99 1018.7 6.0 W 10.7 0.0 0.4
08:09 16.9 16.8 99 1018.7 7.6 W 10.7 0.0 0.4
08:10 16.9 16.8 99 1018.6 4.5 WSW 10.7 0.0 0.4
08:11 16.9 16.8 99 1018.6 6.0 SW 10.7 0.0 0.4
08:12 16.9 16.8 99 1018.7 6.0 NW 10.7 0.0 0.4
08:13 16.9 16.8 99 1018.8 11.4 SW 11.4 0.0 0.5
08:14 16.9 16.8 99 1018.8 5.4 W 11.4 0.8 0.5
08:15 16.9 16.8 99 1018.8 7.6 SW 11.4 0.8 0.5
08:16 16.9 16.8 99 1018.8 7.6 SW 11.4 0.8 0.5
08:17 16.9 16.8 99 1018.8 8.3 SSW 11.4 0.8 0.5
08:18 16.9 16.8 99 1018.7 7.6 WSW 11.4 0.8 0.5
08:19 16.9 16.8 99 1018.8 6.9 W 11.4 0.0 0.5
08:20 16.9 16.8 99 1018.8 8.3 W 11.4 0.0 0.5
08:21 16.9 16.8 99 1018.8 6.0 W 11.4 0.0 0.5
08:22 16.9 16.8 99 1018.8 6.0 SW 11.4 0.0 0.5
08:23 16.9 16.8 99 1018.7 9.8 W 11.4 0.0 0.5
08:24 16.9 16.8 99 1018.8 7.6 W 9.8 0.0 0.5
08:25 16.9 16.8 99 1018.8 7.6 S 9.8 0.0 0.5
08:26 17.0 16.9 99 1018.7 6.9 SW 9.8 0.0 0.5
08:27 17.0 16.9 99 1018.8 6.0 SW 9.8 0.0 0.5
08:28 17.0 16.9 99 1018.7 9.2 SW 9.8 0.0 0.5
08:30 17.0 16.9 99 1018.9 6.0 SW 9.8 0.0 0.5
08:31 17.0 16.9 99 1018.9 5.4 W 9.8 0.0 0.5
08:32 17.0 16.9 99 1018.8 10.7 WNW 10.7 0.0 0.5
08:33 17.0 16.9 99 1019.1 6.9 WNW 10.7 0.0 0.5
08:34 17.0 16.9 99 1018.9 6.0 SW 10.7 0.0 0.5
08:35 17.0 16.9 99 1018.8 5.4 N 10.7 0.0 0.5
08:36 17.0 16.9 99 1019.0 6.0 W 10.7 0.0 0.5
08:37 17.0 16.9 99 1019.0 6.0 W 10.7 0.0 0.5
08:38 17.0 16.9 99 1018.9 6.9 NW 10.7 0.0 0.5
08:39 17.0 16.9 99 1018.9 4.5 W 10.7 0.0 0.5
08:40 17.0 16.9 99 1018.9 5.4 S 10.7 0.0 0.5
08:41 17.0 16.9 99 1019.0 6.0 SW 10.7 0.0 0.5
08:42 17.0 16.9 99 1019.0 3.1 N 10.7 0.0 0.5
08:43 17.0 16.9 99 1019.0 0.7 W 6.9 0.0 0.5
08:44 17.1 17.0 99 1019.0 3.8 W 6.9 0.0 0.5
08:45 17.1 17.0 99 1019.0 3.8 W 6.9 0.0 0.5
08:46 17.1 17.0 99 1019.0 5.4 NW 6.9 0.0 0.5
08:48 17.1 17.0 99 1018.9 3.8 SW 6.0 0.0 0.5
08:49 17.1 17.0 99 1019.0 4.5 W 6.0 0.0 0.5
08:50 17.1 17.0 99 1018.9 4.5 W 6.0 0.0 0.5
08:51 17.1 17.0 99 1018.8 4.5 SW 5.4 0.0 0.5
08:52 17.1 17.0 99 1019.0 3.1 W 5.4 0.0 0.5
08:53 17.1 17.0 99 1019.0 3.1 W 5.4 0.0 0.5
08:54 17.1 17.0 99 1019.0 8.3 SW 8.3 0.0 0.5
08:55 17.1 17.0 99 1019.0 9.2 NW 9.2 0.0 0.5
08:56 17.1 17.0 99 1019.1 6.0 WSW 9.2 0.0 0.5
08:57 17.1 17.0 99 1019.1 6.0 W 9.2 0.0 0.5
08:58 17.1 17.0 99 1019.0 5.4 SW 9.2 0.0 0.5
08:59 17.1 17.0 99 1019.0 6.9 SW 9.2 0.0 0.5
09:00 17.1 17.0 99 1019.2 4.5 N 9.2 0.0 0.5
09:01 17.1 17.0 99 1019.0 4.5 N 9.2 0.0 0.5
09:02 17.1 17.0 99 1019.0 8.3 SW 9.2 0.0 0.5
09:03 17.1 17.0 99 1019.2 7.6 SW 9.2 0.0 0.5
09:04 17.1 17.0 99 1019.1 7.6 SW 9.2 0.0 0.5
09:05 17.1 17.0 99 1019.1 6.9 NW 8.3 0.0 0.5
09:07 17.1 17.0 99 1019.3 4.5 W 8.3 0.0 0.5
09:08 17.1 17.0 99 1019.1 4.5 W 8.3 0.0 0.5
09:09 17.1 17.0 99 1019.2 5.4 NW 8.3 0.0 0.5
09:10 17.1 17.0 99 1019.2 6.0 WSW 8.3 0.0 0.5
09:11 17.2 17.1 99 1019.2 6.9 W 8.3 0.0 0.5
09:12 17.2 17.1 99 1019.1 7.6 NW 8.3 0.0 0.5
09:13 17.2 17.1 99 1019.2 9.2 SW 9.2 0.0 0.5
09:14 17.2 17.1 99 1019.1 12.1 SW 12.1 0.0 0.5
09:15 17.2 17.1 99 1019.1 10.7 S 12.1 0.0 0.5
09:16 17.2 17.1 99 1019.3 7.6 NW 12.1 0.0 0.5
09:17 17.2 17.1 99 1019.3 7.6 SW 12.1 0.0 0.5
09:18 17.2 17.1 99 1019.1 8.3 SW 12.1 0.0 0.5
09:19 17.2 17.1 99 1019.1 7.6 SW 12.1 0.0 0.5
09:20 17.2 17.1 99 1019.2 5.4 SW 12.1 0.0 0.5
09:21 17.2 17.1 99 1019.2 5.4 WSW 12.1 0.0 0.5
09:22 17.2 17.1 99 1019.3 9.2 SW 12.1 0.0 0.5
09:23 17.2 17.1 99 1019.1 7.6 W 12.1 0.0 0.5
09:24 17.3 17.2 99 1019.1 8.3 SW 12.1 0.0 0.5
09:25 17.2 17.1 99 1019.3 9.2 W 10.7 0.0 0.5
09:26 17.3 17.2 99 1019.2 11.4 S 11.4 0.0 0.5
09:27 17.3 17.2 99 1019.5 10.7 SW 11.4 0.0 0.5
09:29 17.3 17.2 99 1019.4 13.0 SW 13.0 0.0 0.5
09:30 17.2 17.1 99 1019.4 12.1 NNE 13.0 0.0 0.5
09:31 17.3 17.2 99 1019.5 10.7 SW 13.0 0.0 0.5
09:32 17.3 17.2 99 1019.3 6.0 WSW 13.0 0.0 0.5
09:33 17.3 17.2 99 1019.3 9.2 S 13.0 0.0 0.5
09:34 17.3 17.2 99 1019.4 9.2 NW 13.0 0.0 0.5
09:35 17.3 17.2 99 1019.4 9.2 W 13.0 0.0 0.5
09:36 17.3 17.2 99 1019.4 9.2 W 13.0 0.0 0.5
09:37 17.3 17.2 99 1019.3 7.6 W 13.0 0.0 0.5
09:38 17.3 17.2 99 1019.3 11.4 SW 13.0 0.0 0.5
09:39 17.3 17.2 99 1019.3 11.4 SW 13.0 0.0 0.5
09:40 17.3 17.2 99 1019.4 7.6 W 12.1 0.0 0.5
09:41 17.3 17.2 99 1019.3 7.6 W 11.4 0.0 0.5
09:42 17.4 17.3 99 1019.3 6.0 SW 11.4 0.0 0.5
09:43 17.4 17.3 99 1019.5 8.3 W 11.4 0.0 0.5
09:44 17.4 17.3 99 1019.3 6.9 W 11.4 0.0 0.5
09:45 17.4 17.3 99 1019.6 6.9 NW 11.4 0.0 0.5
09:46 17.4 17.3 99 1019.5 7.6 SW 11.4 0.0 0.5
09:47 17.4 17.3 99 1019.4 6.9 S 11.4 0.0 0.5
09:49 17.4 17.3 99 1019.6 11.4 SW 11.4 0.0 0.5
09:50 17.4 17.3 99 1019.5 7.6 WSW 11.4 0.0 0.5
09:51 17.4 17.3 99 1019.4 9.2 W 11.4 0.0 0.5
09:52 17.5 17.4 99 1019.6 8.3 SW 11.4 0.0 0.5
09:53 17.5 17.4 99 1019.4 6.9 SW 11.4 0.0 0.5
09:54 17.5 17.4 99 1019.5 4.5 NW 11.4 0.0 0.5
09:55 17.5 17.4 99 1019.6 9.2 SW 11.4 0.0 0.5
09:56 17.5 17.4 99 1019.4 11.4 SW 11.4 0.0 0.5
09:57 17.5 17.4 99 1019.5 6.9 NW 11.4 0.0 0.5
09:58 17.5 17.4 99 1019.4 9.2 SW 11.4 0.0 0.5
09:59 17.5 17.4 99 1019.6 9.8 SW 11.4 0.0 0.5
10:00 17.5 17.4 99 1019.5 7.6 W 11.4 0.0 0.5
10:01 17.5 17.4 99 1019.6 7.6 W 11.4 0.0 0.5
10:02 17.5 17.4 99 1019.5 6.0 W 11.4 0.0 0.5
10:03 17.5 17.4 99 1019.6 7.6 SW 11.4 0.0 0.5
10:06 17.5 17.4 99 1019.7 10.7 SW 10.7 0.0 0.5
10:07 17.5 17.4 99 1019.6 9.2 NW 10.7 0.0 0.5
10:08 17.5 17.4 99 1019.6 7.6 SW 10.7 0.0 0.5
10:09 17.5 17.4 99 1019.6 8.3 NW 10.7 0.0 0.5
10:10 17.6 17.5 99 1019.7 9.2 W 10.7 0.0 0.5
10:11 17.6 17.5 99 1019.7 6.9 W 10.7 0.0 0.5
10:12 17.6 17.5 99 1019.7 6.9 W 10.7 0.0 0.5
10:13 17.6 17.5 99 1019.7 9.2 SW 10.7 0.0 0.5
10:14 17.6 17.5 99 1019.7 9.8 SW 10.7 0.0 0.5
10:15 17.6 17.5 99 1019.7 7.6 SW 10.7 0.0 0.5
10:16 17.6 17.5 99 1019.6 8.3 SW 10.7 0.0 0.5
10:17 17.6 17.5 99 1019.6 6.0 SW 9.8 0.0 0.5
10:18 17.6 17.5 99 1019.6 9.8 SW 9.8 0.0 0.5
10:19 17.6 17.5 99 1019.7 6.9 SE 9.8 0.0 0.5
10:20 17.6 17.5 99 1019.7 7.6 NW 9.8 0.0 0.5
10:21 17.6 17.5 99 1019.7 5.4 W 9.8 0.0 0.5
10:22 17.6 17.5 99 1019.7 7.6 W 9.8 0.0 0.5
10:23 17.6 17.5 99 1019.8 6.0 S 9.8 0.0 0.5
10:24 17.6 17.5 99 1019.8 9.8 S 9.8 0.0 0.5
10:25 17.6 17.5 99 1019.8 9.8 S 9.8 0.0 0.5
10:26 17.6 17.5 99 1019.7 9.2 W 9.8 0.0 0.5
10:27 17.6 17.5 99 1019.7 9.2 W 9.8 0.0 0.5
10:28 17.6 17.5 99 1019.8 6.9 SW 9.8 0.0 0.5
10:29 17.6 17.5 99 1019.7 9.2 W 9.8 0.0 0.5
10:30 17.7 17.6 99 1019.8 9.2 S 9.8 0.0 0.5
10:31 17.6 17.5 99 1019.8 7.6 SW 9.8 0.0 0.5
10:32 17.7 17.6 99 1019.9 8.3 NW 9.8 0.0 0.5
10:33 17.7 17.6 99 1019.8 8.3 NW 9.8 0.0 0.5
10:34 17.7 17.6 99 1019.9 6.0 SW 9.8 0.0 0.5
10:36 17.7 17.6 99 1019.7 6.0 W 10.7 0.0 0.5
10:37 17.7 17.6 99 1019.7 4.5 NW 10.7 0.0 0.5
10:38 17.7 17.6 99 1019.8 8.3 SW 10.7 0.0 0.5
10:39 17.7 17.6 99 1019.9 5.4 W 10.7 0.0 0.5
10:40 17.7 17.6 99 1019.7 8.3 W 10.7 0.0 0.5
10:41 17.7 17.6 99 1020.0 7.6 W 10.7 0.0 0.5
10:42 17.8 17.7 99 1019.9 6.0 W 10.7 0.0 0.5
10:43 17.8 17.7 99 1020.0 9.2 NE 10.7 0.0 0.5
10:44 17.7 17.6 99 1020.0 9.2 SW 10.7 0.0 0.5
10:45 17.8 17.7 99 1019.9 11.4 NW 11.4 0.0 0.5
10:46 17.7 17.6 99 1019.9 13.0 S 13.0 0.0 0.5
10:47 17.7 17.6 99 1019.9 8.3 SW 13.0 0.0 0.5
10:48 17.8 17.7 99 1019.9 10.7 NW 13.0 0.0 0.5
10:49 17.7 17.6 99 1020.0 9.2 NW 13.0 0.0 0.5
10:50 17.7 17.6 99 1019.8 13.6 NW 13.6 0.0 0.5
10:51 17.7 17.6 99 1019.9 8.3 SW 13.6 0.0 0.5
10:53 17.7 17.6 99 1020.0 9.8 SW 13.6 0.0 0.5
10:54 17.7 17.6 99 1020.0 10.7 W 13.6 0.0 0.5
10:55 17.7 17.6 99 1019.9 9.2 SW 13.6 0.0 0.5
10:56 17.7 17.6 99 1020.0 8.3 N 13.6 0.0 0.5
10:57 17.7 17.6 99 1020.1 7.6 NW 13.6 0.0 0.5
10:58 17.6 17.5 99 1020.0 9.2 NW 13.6 0.0 0.5
10:59 17.7 17.6 99 1019.9 9.2 NW 13.6 0.0 0.5
11:00 17.7 17.6 99 1019.9 9.2 NW 13.6 0.0 0.5
11:01 17.7 17.6 99 1020.1 9.2 NW 12.1 0.0 0.5
11:02 17.6 17.5 99 1020.0 8.3 SW 11.4 0.0 0.5
11:03 17.6 17.5 99 1020.2 9.2 NW 10.7 0.0 0.5
11:04 17.6 17.5 99 1020.2 8.3 NW 10.7 0.0 0.5
11:05 17.6 17.5 99 1020.1 8.3 SW 9.2 0.0 0.5
11:07 17.6 17.5 99 1020.1 7.6 SW 9.2 0.0 0.5
11:08 17.6 17.5 99 1020.0 8.3 SW 9.2 0.0 0.5
11:09 17.6 17.5 99 1020.1 11.4 NW 11.4 0.0 0.5
11:10 17.6 17.5 99 1020.2 8.3 NW 11.4 0.0 0.5
11:11 17.6 17.5 99 1020.1 7.6 W 11.4 0.0 0.5
11:12 17.6 17.5 99 1020.1 8.3 SW 11.4 0.0 0.5
11:13 17.6 17.5 99 1020.1 3.8 SW 11.4 0.0 0.5
11:14 17.6 17.5 99 1020.2 4.5 SW 11.4 0.0 0.5
11:15 17.6 17.5 99 1020.1 3.8 W 11.4 0.0 0.5
11:16 17.6 17.5 99 1020.1 6.9 SW 11.4 0.0 0.5
11:17 17.6 17.5 99 1020.2 5.4 SW 11.4 0.0 0.5
11:18 17.6 17.5 99 1020.2 5.4 SW 11.4 0.0 0.5
11:19 17.6 17.5 99 1020.1 6.0 WSW 11.4 0.0 0.5
11:20 17.6 17.5 99 1020.2 8.3 W 8.3 0.0 0.5
11:21 17.6 17.5 99 1020.2 6.9 NW 8.3 0.0 0.6
11:22 17.6 17.5 99 1020.1 10.7 WSW 10.7 0.8 0.6
11:23 17.6 17.5 99 1020.1 7.6 NW 10.7 0.8 0.6
11:24 17.6 17.5 99 1020.2 6.0 NW 10.7 0.8 0.6
11:25 17.6 17.5 99 1020.1 9.8 NW 10.7 0.8 0.6
11:27 17.6 17.5 99 1020.0 9.8 SW 11.4 0.0 0.6
11:28 17.6 17.5 99 1019.9 10.7 S 11.4 0.0 0.6
11:29 17.6 17.5 99 1020.1 7.6 SW 11.4 0.0 0.6
11:30 17.6 17.5 99 1020.1 7.6 SW 11.4 0.0 0.6
11:31 17.6 17.5 99 1020.1 10.7 SW 11.4 0.0 0.6
11:32 17.6 17.5 99 1020.1 10.7 SW 11.4 0.0 0.6
11:33 17.6 17.5 99 1020.2 9.8 W 11.4 0.0 0.6
11:34 17.6 17.5 99 1020.1 12.1 W 12.1 0.0 0.6
11:35 17.6 17.5 99 1020.1 8.3 NW 12.1 0.0 0.6
11:36 17.6 17.5 99 1020.1 9.8 SW 12.1 0.0 0.6
11:37 17.6 17.5 99 1020.2 9.2 WSW 12.1 0.0 0.6
11:38 17.6 17.5 99 1020.2 9.2 SW 12.1 0.0 0.6
11:39 17.6 17.5 99 1020.2 8.3 W 12.1 0.0 0.6
11:40 17.7 17.6 99 1020.1 9.2 SW 12.1 0.0 0.6
11:41 17.7 17.6 99 1020.2 8.3 SW 12.1 0.0 0.6
11:42 17.7 17.6 99 1020.1 12.1 SW 12.1 0.0 0.6
11:43 17.7 17.6 99 1020.3 8.3 WNW 12.1 0.0 0.6
11:44 17.7 17.6 99 1020.2 8.3 SW 12.1 0.0 0.6
11:45 17.7 17.6 99 1020.2 9.8 WSW 12.1 0.0 0.6
11:46 17.8 17.7 99 1020.1 5.4 NW 12.1 0.0 0.6
11:48 17.8 17.7 99 1020.2 11.4 W 12.1 0.0 0.6
11:49 17.8 17.7 99 1020.2 9.2 W 12.1 0.0 0.6
11:50 17.8 17.7 99 1020.3 9.8 SW 12.1 0.0 0.6
11:51 17.8 17.7 99 1020.1 7.6 WSW 12.1 0.0 0.6
11:52 17.9 17.8 99 1020.3 9.2 WSW 11.4 0.0 0.6
11:53 17.9 17.8 99 1020.1 12.1 NW 12.1 0.0 0.6
11:54 17.9 17.8 99 1020.2 10.7 W 12.1 0.0 0.6
11:55 17.9 17.8 99 1020.3 10.7 WNW 12.1 0.0 0.6
11:56 17.9 17.8 99 1020.2 13.0 WSW 13.0 0.0 0.6
11:57 17.8 17.7 99 1020.1 7.6 W 13.0 0.0 0.6
11:58 17.8 17.7 99 1020.1 9.8 SW 13.0 0.0 0.6
11:59 17.8 17.7 99 1020.3 13.0 SW 13.0 0.0 0.6
12:00 17.8 17.7 99 1020.3 7.6 W 13.0 0.0 0.6
12:01 17.8 17.7 99 1020.3 7.6 W 13.0 0.0 0.6
12:02 17.8 17.7 99 1020.3 6.0 W 13.0 0.0 0.6
12:03 17.8 17.7 99 1020.4 6.9 S 13.0 0.0 0.6
12:04 17.8 17.7 99 1020.3 8.3 SW 13.0 0.0 0.6
12:06 17.8 17.7 99 1020.4 13.6 WNW 13.6 0.0 0.6
12:07 17.8 17.7 99 1020.3 15.2 WSW 15.2 0.0 0.6
12:08 17.8 17.7 99 1020.3 15.2 S 15.2 0.0 0.6
12:09 17.8 17.7 99 1020.3 11.4 SW 15.2 0.0 0.6
12:10 17.8 17.7 99 1020.4 16.8 SW 16.8 0.0 0.6
12:11 17.7 17.6 99 1020.2 13.0 NW 16.8 0.0 0.6
12:12 17.7 17.6 99 1020.4 13.0 SW 16.8 0.0 0.6
12:13 17.7 17.6 99 1020.4 10.7 N 16.8 0.0 0.6
12:14 17.7 17.6 99 1020.5 11.4 SW 16.8 0.0 0.6
12:15 17.7 17.6 99 1020.3 9.8 W 16.8 0.0 0.6
12:16 17.7 17.6 99 1020.3 11.4 S 16.8 0.0 0.6
12:17 17.7 17.6 99 1020.4 9.8 W 16.8 0.0 0.6
12:18 17.7 17.6 99 1020.4 8.3 W 16.8 0.0 0.6
12:19 17.7 17.6 99 1020.4 6.9 SW 16.8 0.0 0.6
12:20 17.7 17.6 99 1020.3 11.4 SW 13.6 0.0 0.6
12:21 17.7 17.6 99 1020.5 11.4 SW 13.6 0.0 0.6
12:23 17.7 17.6 99 1020.5 10.7 SW 13.6 0.0 0.6
12:24 17.6 17.5 99 1020.4 9.2 SW 13.6 0.0 0.6
12:25 17.6 17.5 99 1020.4 15.2 SW 15.2 0.0 0.6
12:26 17.6 17.5 99 1020.4 12.1 WSW 15.2 0.0 0.6
12:27 17.6 17.5 99 1020.5 9.8 N 15.2 0.0 0.6
12:28 17.6 17.5 99 1020.4 13.0 S 15.2 0.0 0.6
12:29 17.6 17.5 99 1020.6 9.8 SW 15.2 0.0 0.6
12:30 17.5 17.4 99 1020.4 10.7 SW 15.2 0.8 0.6
12:31 17.5 17.4 99 1020.5 13.0 SW 15.2 0.8 0.6
12:32 17.5 17.4 99 1020.5 6.9 WSW 15.2 0.8 0.6
12:33 17.5 17.4 99 1020.4 7.6 N 15.2 0.8 0.6
12:34 17.5 17.4 99 1020.4 9.2 W 15.2 0.8 0.6
12:35 17.5 17.4 99 1020.3 10.7 NW 15.2 0.0 0.6
12:36 17.5 17.4 99 1020.6 6.0 SW 13.0 0.0 0.6
12:37 17.5 17.4 99 1020.5 13.0 WSW 13.0 0.0 0.6
12:38 17.5 17.4 99 1020.5 11.4 SW 13.0 0.0 0.6
12:40 17.5 17.4 99 1020.5 6.0 NW 13.0 0.0 0.6
12:41 17.5 17.4 99 1020.4 8.3 NW 13.0 0.0 0.6
12:42 17.5 17.4 99 1020.5 8.3 S 13.0 0.0 0.6
12:43 17.5 17.4 99 1020.6 8.3 SW 13.0 0.0 0.6
12:44 17.6 17.5 99 1020.5 12.1 SW 13.0 0.0 0.6
12:45 17.6 17.5 99 1020.5 12.1 SW 13.0 0.0 0.6
12:46 17.6 17.5 99 1020.5 8.3 SW 13.0 0.0 0.6
12:47 17.6 17.5 99 1020.5 13.0 N 13.0 0.0 0.6
12:48 17.6 17.5 99 1020.3 12.1 W 13.0 0.0 0.6
12:49 17.6 17.5 99 1020.5 10.7 E 13.0 0.0 0.6
12:50 17.7 17.6 99 1020.5 13.0 SW 13.0 0.0 0.6
12:51 17.7 17.6 99 1020.4 14.5 SW 14.5 0.0 0.6
12:52 17.7 17.6 99 1020.4 10.7 WSW 14.5 0.0 0.6
12:53 17.7 17.6 99 1020.6 6.9 SE 14.5 0.0 0.6
12:54 17.7 17.6 99 1020.5 6.0 W 14.5 0.0 0.6
12:55 17.7 17.6 99 1020.5 10.7 SW 14.5 0.0 0.6
12:56 17.8 17.7 99 1020.6 7.6 NW 14.5 0.0 0.6
12:58 17.8 17.7 99 1020.5 9.8 SW 14.5 0.0 0.6
12:59 17.8 17.7 99 1020.5 13.6 N 14.5 0.0 0.6
13:00 17.8 17.7 99 1020.3 13.6 N 14.5 0.0 0.6
13:01 17.8 17.7 99 1020.5 13.6 N 13.6 0.0 0.6
13:02 17.8 17.7 99 1020.5 13.6 N 13.6 0.0 0.6
13:03 17.8 17.7 99 1020.5 13.6 N 13.6 0.0 0.6
13:04 17.8 17.7 99 1020.5 13.6 N 13.6 0.0 0.6
13:05 17.8 17.7 99 1020.4 13.6 N 13.6 0.0 0.6
13:06 17.9 17.8 99 1020.5 6.9 NW 13.6 0.0 0.6
13:07 17.9 17.8 99 1020.4 10.7 SW 13.6 0.0 0.6
13:08 17.9 17.8 99 1020.4 10.7 SW 13.6 0.0 0.6
13:09 17.9 17.8 99 1020.5 10.7 W 13.6 0.0 0.6
13:10 17.9 17.8 99 1020.6 13.6 SW 13.6 0.0 0.6
13:11 17.9 17.8 99 1020.5 9.2 WNW 13.6 0.0 0.6
13:12 17.9 17.8 99 1020.6 9.8 WSW 13.6 0.0 0.6
13:13 17.9 17.8 99 1020.6 8.3 SW 13.6 0.0 0.6
13:14 17.9 17.8 99 1020.5 9.8 SW 13.6 0.0 0.6
13:15 17.9 17.8 99 1020.6 10.7 WSW 13.6 0.0 0.6
13:16 17.9 17.8 99 1020.4 9.2 SW 13.6 0.0 0.6
13:17 17.9 17.8 99 1020.6 9.8 SW 13.6 0.0 0.6
13:18 17.9 17.8 99 1020.7 11.4 NW 13.6 0.0 0.6
13:19 18.0 17.9 99 1020.6 9.2 SW 13.6 0.0 0.6
13:20 18.0 17.9 99 1020.7 7.6 W 12.1 0.0 0.6
13:21 18.0 17.9 99 1020.8 9.2 WNW 12.1 0.0 0.6
13:22 18.0 17.9 99 1020.7 11.4 NW 13.6 0.0 0.6
13:24 18.0 17.9 99 1020.8 10.7 SW 13.6 0.0 0.6
13:25 18.0 17.9 99 1020.6 9.8 W 13.6 0.0 0.6
13:26 18.0 17.9 99 1020.7 11.4 SW 13.6 0.0 0.6
13:27 18.0 17.9 99 1020.7 13.0 SW 13.6 0.0 0.6
13:28 18.0 17.9 99 1020.7 7.6 W 13.6 0.0 0.6
13:29 18.0 17.9 99 1020.7 7.6 W 13.6 0.0 0.6
13:30 18.0 17.9 99 1020.8 12.1 SW 13.6 0.0 0.6
13:31 18.0 17.9 99 1020.7 10.7 W 13.6 0.0 0.6
13:32 18.0 17.9 99 1020.8 14.5 NW 14.5 0.0 0.6
13:33 18.0 17.9 99 1020.8 14.5 SW 14.5 0.0 0.6
13:34 17.9 17.8 99 1020.7 13.6 W 15.2 0.0 0.6
13:35 17.9 17.8 99 1020.6 11.4 NW 15.2 0.0 0.6
13:36 17.9 17.8 99 1020.7 9.8 N 15.2 0.0 0.6
13:37 17.9 17.8 99 1020.8 11.4 NW 15.2 0.0 0.6
13:38 17.8 17.7 99 1020.7 13.0 SW 15.2 0.0 0.6
13:39 17.8 17.7 99 1020.7 9.8 W 15.2 0.0 0.6
13:40 17.8 17.7 99 1020.7 13.0 SSW 15.2 0.0 0.6
13:42 17.8 17.7 99 1020.8 11.4 NW 15.2 0.0 0.6
13:43 17.8 17.7 99 1020.9 8.3 W 13.6 0.0 0.6
13:44 17.8 17.7 99 1020.8 12.1 NW 13.0 0.0 0.6
13:45 17.8 17.7 99 1020.8 12.1 NW 13.0 0.0 0.6
13:46 17.8 17.7 99 1020.8 6.9 SW 13.0 0.0 0.6
13:47 17.8 17.7 99 1020.8 9.2 NW 13.0 0.0 0.6
13:48 17.8 17.7 99 1020.8 7.6 WSW 13.0 0.0 0.6
13:49 17.8 17.7 99 1020.8 7.6 NW 13.0 0.0 0.6
13:50 17.9 17.8 99 1020.7 7.6 SW 13.0 0.0 0.6
13:51 17.9 17.8 99 1020.8 10.7 SW 12.1 0.0 0.6
13:52 17.9 17.8 99 1020.8 13.0 NW 13.0 0.0 0.6
13:53 17.9 17.8 99 1020.7 8.3 NW 13.0 0.0 0.6
13:54 17.9 17.8 99 1020.9 8.3 S 13.0 0.0 0.6
13:55 17.9 17.8 99 1020.7 14.5 N 14.5 0.0 0.6
13:56 17.9 17.8 99 1020.7 17.4 SW 17.4 0.0 0.6
13:57 17.9 17.8 99 1020.8 12.1 NW 17.4 0.0 0.6
13:58 17.9 17.8 99 1020.8 15.2 WNW 17.4 0.0 0.6
13:59 17.9 17.8 99 1020.8 12.1 SW 17.4 0.0 0.6
14:01 17.9 17.8 99 1020.6 12.1 SW 17.4 0.0 0.6
14:02 18.0 17.9 99 1020.7 13.0 SW 17.4 0.0 0.6
14:03 18.0 17.9 99 1020.6 13.0 NW 17.4 0.0 0.6
14:04 18.0 17.9 99 1020.6 13.0 NW 17.4 0.0 0.6
14:05 18.0 17.9 99 1020.7 8.3 SW 17.4 0.0 0.6
14:06 18.1 18.0 99 1020.7 10.7 SW 15.2 0.0 0.6
14:07 18.1 18.0 99 1020.8 13.0 S 15.2 0.0 0.6
14:08 18.1 18.0 99 1020.6 10.7 SW 15.2 0.0 0.6
14:09 18.1 18.0 99 1020.7 6.0 S 13.0 0.0 0.6
14:10 18.2 18.1 99 1020.7 9.2 WNW 13.0 0.0 0.6
14:11 18.2 18.1 99 1020.8 9.8 WSW 13.0 0.0 0.6
14:12 18.2 18.1 99 1020.5 10.7 W 13.0 0.0 0.6
14:13 18.2 18.1 99 1020.8 12.1 SW 13.0 0.0 0.6
14:14 18.2 18.1 99 1020.8 8.3 W 13.0 0.0 0.6
14:15 18.2 18.1 99 1020.7 9.2 SW 13.0 0.0 0.6
14:16 18.2 18.1 99 1020.8 13.0 NW 13.0 0.0 0.6
14:17 18.2 18.1 99 1020.8 12.1 NW 13.0 0.0 0.6
14:18 18.2 18.1 99 1020.8 13.6 SW 13.6 0.0 0.6
14:20 18.2 17.9 98 1020.8 15.9 SW 15.9 0.0 0.6
14:21 18.2 17.9 98 1020.8 14.5 SW 15.9 0.0 0.6
14:22 18.1 17.8 98 1020.7 7.6 NW 15.9 0.0 0.6
14:23 18.1 17.8 98 1020.7 7.6 NW 15.9 0.0 0.6
14:24 18.1 17.8 98 1020.8 9.8 WNW 15.9 0.0 0.6
14:25 18.1 17.8 98 1020.8 13.0 SW 15.9 0.0 0.6
14:26 18.1 17.8 98 1020.8 11.4 W 15.9 0.0 0.6
14:27 18.1 17.8 98 1020.8 13.6 SW 15.9 0.0 0.6
14:28 18.0 17.5 97 1020.8 9.8 W 15.9 0.0 0.6
14:29 18.0 17.5 97 1020.8 9.2 W 15.9 0.0 0.6
14:30 18.0 17.5 97 1020.8 12.1 W 15.9 0.0 0.6
14:31 18.0 17.5 97 1020.8 13.6 WSW 14.5 0.0 0.6
14:32 18.0 17.5 97 1020.8 9.2 NW 13.6 0.0 0.6
14:33 18.0 17.5 97 1020.9 10.7 SW 13.6 0.0 0.6
14:34 18.0 17.5 97 1020.8 14.5 SW 14.5 0.0 0.6
14:35 18.0 17.5 97 1020.8 11.4 SW 14.5 0.0 0.6
14:36 18.0 17.5 97 1020.8 14.5 SW 14.5 0.0 0.6
14:37 18.0 17.5 97 1020.8 13.0 SW 14.5 0.0 0.6
14:38 18.1 17.5 96 1020.8 10.7 SW 14.5 0.0 0.6
14:40 18.1 17.5 96 1020.9 6.9 SW 14.5 0.0 0.6
14:41 18.1 17.5 96 1020.8 13.6 SW 14.5 0.0 0.6
14:42 18.1 17.5 96 1020.7 11.4 SW 14.5 0.0 0.6
14:43 18.2 17.6 96 1020.9 10.7 S 14.5 0.0 0.6
14:44 18.2 17.6 96 1020.8 9.8 SW 14.5 0.0 0.6
14:45 18.2 17.6 96 1020.8 14.5 S 14.5 0.0 0.6
14:46 18.2 17.6 96 1021.0 13.0 SW 14.5 0.0 0.6
14:47 18.3 17.7 96 1020.8 15.2 WSW 15.2 0.0 0.6
14:48 18.2 17.6 96 1020.7 11.4 W 15.2 0.0 0.6
14:49 18.3 17.3 94 1020.9 12.1 SSW 15.2 0.0 0.6
14:50 18.2 17.2 94 1020.9 9.8 SW 15.2 0.0 0.6
14:51 18.3 17.3 94 1021.0 8.3 W 15.2 0.0 0.6
14:52 18.3 17.3 94 1020.9 16.8 SW 16.8 0.0 0.6
14:53 18.3 17.3 94 1020.9 12.1 SW 16.8 0.0 0.6
14:54 18.3 17.2 93 1021.0 9.8 SW 16.8 0.0 0.6
14:55 18.3 17.2 93 1021.0 8.3 SW 16.8 0.0 0.6
14:56 18.3 17.2 93 1020.9 13.6 SW 16.8 0.0 0.6
14:57 18.3 17.2 93 1021.0 11.4 SW 16.8 0.0 0.6
14:58 18.3 17.2 93 1020.9 13.0 SW 16.8 0.0 0.6
14:59 18.3 17.2 93 1021.0 9.8 W 16.8 0.0 0.6
15:01 18.3 17.2 93 1020.9 9.8 W 16.8 0.0 0.6
15:02 18.3 17.2 93 1021.0 10.7 W 13.6 0.0 0.6
15:03 18.3 17.2 93 1020.8 13.0 SW 13.6 0.0 0.6
15:04 18.3 17.0 92 1020.7 13.0 SW 13.6 0.0 0.6
15:05 18.3 17.0 92 1020.8 9.8 SW 13.6 0.0 0.6
15:06 18.3 17.0 92 1020.7 6.0 SW 13.6 0.0 0.6
15:07 18.4 17.1 92 1020.8 6.9 NW 13.0 0.0 0.6
15:08 18.4 17.1 92 1020.7 9.8 SW 13.0 0.0 0.6
15:09 18.4 17.1 92 1020.7 9.2 WSW 13.0 0.0 0.6
15:10 18.4 17.1 92 1020.8 9.2 WSW 13.0 0.0 0.6
15:11 18.5 17.2 92 1020.9 10.7 W 13.0 0.0 0.6
15:12 18.5 17.2 92 1020.7 9.8 S 13.0 0.0 0.6
15:13 18.5 17.2 92 1020.7 9.8 NW 13.0 0.0 0.6
15:14 18.5 17.2 92 1020.8 14.5 W 14.5 0.0 0.6
15:15 18.5 17.2 92 1020.8 14.5 NW 14.5 0.0 0.6
15:16 18.5 17.2 92 1020.7 12.1 SW 14.5 0.0 0.6
15:17 18.5 17.0 91 1020.8 10.7 NW 14.5 0.0 0.6
15:18 18.5 17.0 91 1020.7 10.7 NW 14.5 0.0 0.6
15:19 18.5 17.0 91 1020.7 12.1 W 14.5 0.0 0.6
15:20 18.5 17.0 91 1020.8 10.7 NW 14.5 0.0 0.6
15:21 18.5 17.0 91 1020.7 10.7 W 14.5 0.0 0.6
15:23 18.5 16.8 90 1020.7 13.0 NW 14.5 0.0 0.6
15:24 18.5 16.8 90 1020.8 11.4 SW 14.5 0.0 0.6
15:25 18.6 16.9 90 1020.7 9.2 SW 13.0 0.0 0.6
15:26 18.6 16.9 90 1020.7 11.4 WSW 13.0 0.0 0.6
15:27 18.6 16.9 90 1020.8 16.8 WSW 16.8 0.0 0.6
15:28 18.6 16.9 90 1020.8 16.8 WSW 16.8 0.0 0.6
15:29 18.7 17.0 90 1020.8 13.0 S 16.8 0.0 0.6
15:30 18.6 16.9 90 1020.9 13.0 SW 16.8 0.0 0.6
15:31 18.7 17.0 90 1020.7 11.4 SW 16.8 0.0 0.6
15:32 18.6 16.9 90 1020.7 13.0 S 16.8 0.0 0.6
15:33 18.7 17.0 90 1020.8 10.7 NW 16.8 0.0 0.6
15:34 18.7 17.0 90 1020.8 11.4 SW 16.8 0.0 0.6
15:35 18.7 17.0 90 1020.8 10.7 SW 16.8 0.0 0.6
15:36 18.7 17.0 90 1020.7 13.6 SW 16.8 0.0 0.6
15:37 18.7 16.9 89 1020.8 13.6 SW 16.8 0.0 0.6
15:38 18.7 16.9 89 1020.9 12.1 SW 14.5 0.0 0.6
15:39 18.7 16.9 89 1020.8 12.1 NE 15.2 0.0 0.6
15:40 18.7 16.9 89 1020.7 17.4 SW 17.4 0.0 0.6
15:41 18.7 16.9 89 1020.8 13.0 SW 17.4 0.0 0.6
15:42 18.7 16.9 89 1020.7 11.4 SW 17.4 0.0 0.6
15:43 18.8 17.0 89 1020.6 12.1 SW 17.4 0.0 0.6
15:45 18.8 17.0 89 1020.8 14.5 SW 17.4 0.0 0.6
15:46 18.8 17.0 89 1020.8 15.2 SW 17.4 0.0 0.6
15:47 18.8 16.8 88 1020.6 13.0 NW 17.4 0.0 0.6
15:48 18.8 16.8 88 1020.7 9.8 W 17.4 0.0 0.6
15:49 18.8 16.8 88 1020.7 10.7 WNW 17.4 0.0 0.6
15:50 18.8 16.8 88 1020.8 10.7 SW 17.4 0.0 0.6
15:51 18.9 16.9 88 1020.7 11.4 SW 15.2 0.0 0.6
15:52 18.9 16.7 87 1020.8 10.7 S 15.2 0.0 0.6
15:53 18.9 16.7 87 1020.7 14.5 NW 15.2 0.0 0.6
15:54 18.9 16.7 87 1020.7 15.2 WSW 15.2 0.0 0.6
15:55 18.9 16.7 87 1020.7 18.3 SW 18.3 0.0 0.6
15:56 18.9 16.7 87 1020.8 15.2 S 18.3 0.0 0.6
15:57 18.9 16.7 87 1020.7 8.3 WSW 18.3 0.0 0.6
15:58 18.9 16.7 87 1020.8 8.3 SW 18.3 0.0 0.6
15:59 19.0 16.8 87 1020.8 13.6 SW 18.3 0.0 0.6
16:00 19.0 16.8 87 1020.8 13.0 SSW 18.3 0.0 0.6
16:01 19.0 16.8 87 1020.8 13.0 SSW 18.3 0.0 0.6
16:02 19.1 16.7 86 1020.8 13.6 S 18.3 0.0 0.6
16:03 19.2 16.6 85 1020.8 14.5 S 18.3 0.0 0.6
16:04 19.2 16.6 85 1020.9 15.9 SW 18.3 0.0 0.6
16:05 19.2 16.4 84 1020.8 13.6 W 15.9 0.0 0.6
16:07 19.2 16.3 83 1020.8 11.4 WSW 15.9 0.0 0.6
16:08 19.2 16.3 83 1020.7 12.1 WSW 15.9 0.0 0.6
16:09 19.2 16.1 82 1020.6 12.1 SW 15.9 0.0 0.6
16:10 19.2 16.1 82 1020.8 13.0 S 15.9 0.0 0.6
16:11 19.2 16.1 82 1020.8 13.0 NW 15.9 0.0 0.6
16:12 19.2 16.1 82 1020.8 8.3 W 15.9 0.0 0.6
16:13 19.3 16.2 82 1020.9 16.8 W 16.8 0.0 0.6
16:14 19.4 16.3 82 1020.8 11.4 SW 16.8 0.0 0.6
16:15 19.5 16.2 81 1020.8 13.0 SW 16.8 0.0 0.6
16:16 19.6 16.3 81 1020.8 11.4 S 16.8 0.0 0.6
16:17 19.6 16.3 81 1020.8 14.5 WSW 16.8 0.0 0.6
16:18 19.7 16.2 80 1020.8 15.9 N 16.8 0.0 0.6
16:19 19.7 16.2 80 1020.8 13.0 S 16.8 0.0 0.6
16:20 19.7 16.2 80 1020.8 13.6 S 16.8 0.0 0.6
16:21 19.8 16.3 80 1020.7 10.7 SW 16.8 0.0 0.6
16:22 19.9 16.4 80 1020.7 13.0 SW 16.8 0.0 0.6
16:23 19.9 16.2 79 1020.9 13.0 SW 15.9 0.0 0.6
16:24 19.9 16.2 79 1020.8 15.9 S 15.9 0.0 0.6
16:26 20.0 16.3 79 1020.8 10.7 S 15.9 0.0 0.6
16:27 19.9 16.2 79 1020.9 14.5 NW 15.9 0.0 0.6
16:28 19.9 16.0 78 1021.0 16.8 SW 16.8 0.0 0.6
16:29 19.9 16.0 78 1020.9 15.2 SW 16.8 0.0 0.6
16:30 19.9 16.0 78 1021.0 16.8 SW 16.8 0.0 0.6
16:31 19.9 16.0 78 1021.0 13.6 SW 16.8 0.0 0.6
16:32 19.9 16.0 78 1020.9 9.2 WSW 16.8 0.0 0.6
16:33 19.9 16.0 78 1020.8 12.1 WSW 16.8 0.0 0.6
16:34 19.9 16.0 78 1020.8 13.0 SW 16.8 0.0 0.6
16:35 19.9 16.0 78 1020.8 13.0 SW 16.8 0.0 0.6
16:36 19.9 16.0 78 1020.8 13.6 S 16.8 0.0 0.6
16:37 19.8 15.9 78 1020.8 15.2 SW 16.8 0.0 0.6
16:38 19.8 15.9 78 1020.9 13.6 SW 16.8 0.0 0.6
16:39 19.7 16.0 79 1021.0 12.1 SSW 16.8 0.0 0.6
16:40 19.6 15.9 79 1021.0 16.8 WNW 16.8 0.0 0.6
16:41 19.6 15.9 79 1020.8 13.6 WSW 16.8 0.0 0.6
16:42 19.5 15.8 79 1021.0 13.0 SW 16.8 0.0 0.6
16:43 19.5 15.8 79 1020.8 11.4 N 16.8 0.0 0.6
16:44 19.4 15.7 79 1020.8 15.2 SW 16.8 0.0 0.6
16:46 19.4 15.7 79 1021.0 13.0 W 16.8 0.0 0.6
16:47 19.3 15.6 79 1020.9 12.1 W 16.8 0.0 0.6
16:48 19.3 15.6 79 1020.8 10.7 SW 16.8 0.0 0.6
16:49 19.3 15.6 79 1020.8 10.7 SW 16.8 0.0 0.6
16:50 19.3 15.6 79 1020.8 14.5 WNW 16.8 0.0 0.6
16:51 19.3 15.6 79 1020.9 13.6 N 15.2 0.0 0.6
16:52 19.3 15.6 79 1020.8 6.9 SE 15.2 0.0 0.6
16:53 19.3 15.6 79 1020.9 10.7 SW 15.2 0.0 0.6
16:54 19.3 15.8 80 1021.0 11.4 SW 15.2 0.0 0.6
16:55 19.3 15.8 80 1020.9 7.6 SW 14.5 0.0 0.6
16:56 19.3 15.8 80 1020.9 11.4 SW 14.5 0.0 0.6
16:57 19.3 15.8 80 1020.8 14.5 SW 14.5 0.0 0.6
16:58 19.3 15.8 80 1020.9 9.8 W 14.5 0.0 0.6
16:59 19.3 15.8 80 1020.9 15.2 NW 15.2 0.0 0.6
17:00 19.3 15.6 79 1021.0 15.9 S 15.9 0.0 0.6
17:01 19.3 15.6 79 1021.0 15.9 S 15.9 0.0 0.6
17:02 19.3 15.8 80 1021.0 9.2 SW 15.9 0.0 0.6
17:03 19.3 15.8 80 1020.9 9.2 W 15.9 0.0 0.6
17:04 19.2 15.7 80 1021.1 10.7 SW 15.9 0.0 0.6
17:05 19.2 15.7 80 1020.9 12.1 SW 15.9 0.0 0.6
17:06 19.2 15.7 80 1020.9 13.0 SW 15.9 0.0 0.6
17:08 19.2 15.7 80 1020.8 13.0 SW 15.9 0.0 0.6
17:09 19.2 15.7 80 1020.9 13.0 SW 15.9 0.0 0.6
17:10 19.2 15.7 80 1020.9 9.8 SW 15.9 0.0 0.6
17:11 19.2 15.7 80 1020.9 10.7 SW 15.9 0.0 0.6
17:12 19.2 15.7 80 1020.9 12.1 S 14.5 0.0 0.6
17:13 19.2 15.7 80 1020.9 13.0 S 14.5 0.0 0.6
17:14 19.1 15.6 80 1020.9 10.7 SW 14.5 0.0 0.6
17:15 19.1 15.6 80 1020.9 13.6 SW 14.5 0.0 0.6
17:16 19.1 15.6 80 1020.8 14.5 NW 14.5 0.0 0.6
17:17 19.1 15.6 80 1020.8 10.7 W 14.5 0.0 0.6
17:18 19.1 15.6 80 1020.9 13.6 WSW 14.5 0.0 0.6
17:19 19.1 15.6 80 1020.8 13.6 WSW 14.5 0.0 0.6
17:20 19.0 15.5 80 1020.8 11.4 W 14.5 0.0 0.6
17:21 19.0 15.5 80 1020.8 15.2 NW 15.2 0.0 0.6
17:22 19.0 15.5 80 1020.8 8.3 SW 15.2 0.0 0.6
17:23 19.0 15.5 80 1020.8 15.2 SW 15.2 0.0 0.6
17:25 19.0 15.5 80 1020.8 11.4 SW 15.2 0.0 0.6
17:26 19.0 15.5 80 1020.7 9.2 W 15.2 0.0 0.6
17:27 19.0 15.5 80 1020.7 9.2 W 15.2 0.0 0.6
17:28 19.0 15.5 80 1020.7 13.0 N 15.2 0.0 0.6
17:29 19.0 15.5 80 1020.8 10.7 NW 15.2 0.0 0.6
17:30 19.0 15.5 80 1020.8 7.6 W 15.2 0.0 0.6
17:31 19.0 15.5 80 1020.7 10.7 S 15.2 0.0 0.6
17:32 19.0 15.5 80 1020.8 12.1 WSW 15.2 0.0 0.6
17:33 19.0 15.5 80 1020.8 12.1 S 15.2 0.0 0.6
17:34 19.0 15.7 81 1021.0 11.4 SW 13.0 0.0 0.6
17:35 19.0 15.7 81 1020.9 13.6 SW 13.6 0.0 0.6
17:36 19.0 15.7 81 1020.9 14.5 SW 14.5 0.0 0.6
17:37 19.0 15.7 81 1020.9 13.6 S 14.5 0.0 0.6
17:38 19.0 15.7 81 1020.8 13.0 S 14.5 0.0 0.6
17:39 19.0 15.7 81 1020.7 14.5 SW 14.5 0.0 0.6
17:40 19.0 15.7 81 1020.7 13.0 SW 14.5 0.0 0.6
17:41 19.0 15.7 81 1020.8 15.2 SW 15.2 0.0 0.6
17:42 19.0 15.7 81 1020.8 13.0 WSW 19.0 0.0 0.6
17:43 18.9 15.4 80 1020.7 13.0 NW 19.0 0.0 0.6
17:44 18.9 15.4 80 1020.7 13.0 SW 19.0 0.0 0.6
17:45 18.9 15.4 80 1020.9 14.5 WSW 19.0 0.0 0.6
17:48 18.9 15.4 80 1021.0 17.4 SSW 19.0 0.0 0.6
17:49 18.8 15.3 80 1020.9 15.9 W 19.0 0.0 0.6
17:50 18.8 15.3 80 1020.8 13.6 NW 19.0 0.0 0.6
17:51 18.8 15.3 80 1020.7 15.2 NW 19.0 0.0 0.6
17:52 18.8 15.3 80 1020.9 15.2 SW 19.0 0.0 0.6
17:53 18.7 15.2 80 1020.8 13.0 SW 17.4 0.0 0.6
17:54 18.7 15.2 80 1020.8 15.2 W 17.4 0.0 0.6
17:55 18.7 15.2 80 1020.7 15.2 SW 17.4 0.0 0.6
17:56 18.7 15.2 80 1020.7 15.2 S 17.4 0.0 0.6
17:57 18.7 15.2 80 1020.8 10.7 W 17.4 0.0 0.6
17:58 18.7 15.2 80 1020.8 9.8 SW 17.4 0.0 0.6
17:59 18.7 15.2 80 1020.6 12.1 SW 15.9 0.0 0.6
18:00 18.6 15.1 80 1020.6 15.2 SW 15.2 0.0 0.6
18:01 18.6 15.1 80 1020.6 15.2 SW 15.2 0.0 0.6
18:02 18.6 15.1 80 1020.6 15.2 SW 15.2 0.0 0.6
18:03 18.6 15.1 80 1020.8 12.1 WSW 15.2 0.0 0.6
18:04 18.6 15.1 80 1020.7 12.1 SW 15.2 0.0 0.6
18:05 18.6 15.1 80 1020.7 9.2 WSW 15.2 0.0 0.6
18:06 18.6 15.1 80 1020.7 13.6 SW 15.2 0.0 0.6
18:07 18.6 15.3 81 1020.7 9.8 SW 15.2 0.0 0.6
18:08 18.6 15.3 81 1020.8 11.4 SW 15.2 0.0 0.6
18:09 18.6 15.3 81 1020.8 10.7 WNW 15.2 0.0 0.6
18:11 18.6 15.3 81 1020.6 13.6 SW 15.2 0.0 0.6
18:12 18.6 15.3 81 1020.8 12.1 SW 13.6 0.0 0.6
18:13 18.6 15.3 81 1020.7 9.2 SW 13.6 0.0 0.6
18:14 18.6 15.3 81 1020.6 11.4 W 13.6 0.0 0.6
18:15 18.6 15.3 81 1020.6 9.8 SW 13.6 0.0 0.6
18:16 18.6 15.3 81 1020.6 13.6 SW 13.6 0.0 0.6
18:17 18.6 15.3 81 1020.7 9.8 W 13.6 0.0 0.6
18:18 18.5 15.2 81 1020.6 11.4 SW 13.6 0.0 0.6
18:19 18.5 15.4 82 1020.6 12.1 SW 13.6 0.0 0.6
18:20 18.5 15.4 82 1020.7 12.1 W 13.6 0.0 0.6
18:21 18.5 15.4 82 1020.7 13.0 SW 13.6 0.0 0.6
18:22 18.7 15.6 82 1020.5 12.1 SW 13.6 0.0 0.6
18:23 18.5 15.4 82 1020.5 9.8 S 13.6 0.0 0.6
18:24 18.5 15.4 82 1020.4 7.6 SW 13.6 0.0 0.6
18:25 18.5 15.4 82 1020.4 7.6 SW 13.6 0.0 0.6
18:26 18.5 15.4 82 1020.5 9.8 WSW 13.6 0.0 0.6
18:27 18.5 15.4 82 1020.6 9.2 SW 13.6 0.0 0.6
18:28 18.5 15.4 82 1020.6 9.2 W 13.0 0.0 0.6
18:29 18.5 15.4 82 1020.5 10.7 SW 13.0 0.0 0.6
18:30 18.4 15.5 83 1020.5 9.8 S 13.0 0.0 0.6
18:31 18.4 15.5 83 1020.5 10.7 SW 13.0 0.0 0.6
18:32 18.4 15.5 83 1020.6 11.4 NW 12.1 0.0 0.6
18:33 18.4 15.5 83 1020.6 11.4 NW 11.4 0.0 0.6
18:34 18.4 15.5 83 1020.6 10.7 S 11.4 0.0 0.6
18:35 18.4 15.5 83 1020.6 10.7 SW 11.4 0.0 0.6
18:36 18.4 15.5 83 1020.6 9.2 SW 11.4 0.0 0.6
18:37 18.4 15.5 83 1020.4 8.3 NW 11.4 0.0 0.6
18:39 18.3 15.4 83 1020.7 9.2 S 12.1 0.0 0.6
18:40 18.3 15.4 83 1020.7 6.9 NW 12.1 0.0 0.6
18:41 18.3 15.6 84 1020.5 12.1 W 12.1 0.0 0.6
18:42 18.3 15.6 84 1020.6 12.1 SW 12.1 0.0 0.6
18:43 18.3 15.6 84 1020.5 10.7 SW 12.1 0.0 0.6
18:44 18.3 15.6 84 1020.7 10.7 S 12.1 0.0 0.6
18:45 18.2 15.5 84 1020.6 10.7 WNW 12.1 0.0 0.6
18:46 18.2 15.5 84 1020.7 11.4 WSW 12.1 0.0 0.6
18:47 18.2 15.5 84 1020.7 9.8 SW 12.1 0.0 0.6
18:48 18.2 15.5 84 1020.8 9.2 SW 12.1 0.0 0.6
18:49 18.2 15.5 84 1020.6 10.7 SW 12.1 0.0 0.6
18:50 18.2 15.5 84 1020.3 12.1 SW 12.1 0.0 0.6
18:51 18.1 15.4 84 1020.5 11.4 S 12.1 0.0 0.6
18:52 18.1 15.4 84 1020.5 9.8 SW 12.1 0.0 0.6
18:53 18.1 15.4 84 1020.6 9.8 SW 12.1 0.0 0.6
18:54 18.1 15.5 85 1020.6 11.4 SW 12.1 0.0 0.6
18:55 18.1 15.5 85 1020.6 10.7 SW 12.1 0.0 0.6
18:56 18.1 15.5 85 1020.6 9.8 W 12.1 0.0 0.6
18:57 18.0 15.5 85 1020.6 11.4 SW 12.1 0.0 0.6
18:58 18.0 15.5 85 1020.7 9.8 SW 12.1 0.0 0.6
18:59 18.0 15.5 85 1020.6 7.6 SW 12.1 0.0 0.6
19:00 18.0 15.5 85 1020.4 9.2 SW 12.1 0.0 0.6
19:01 18.0 15.5 85 1020.6 9.2 SW 12.1 0.0 0.6
19:02 18.0 15.5 85 1020.5 9.2 SW 12.1 0.0 0.6
19:03 18.0 15.5 85 1020.6 9.2 SW 11.4 0.0 0.6
19:04 18.0 15.5 85 1020.5 10.7 WSW 11.4 0.0 0.6
19:05 18.0 15.5 85 1020.6 12.1 WSW 12.1 0.0 0.6
19:07 18.0 15.5 85 1020.6 7.6 SW 13.0 0.0 0.6
19:08 18.0 15.6 86 1020.6 10.7 NW 13.0 0.0 0.6
19:09 18.0 15.5 85 1020.6 10.7 SW 13.0 0.0 0.6
19:10 17.9 15.5 86 1020.6 8.3 SW 13.0 0.0 0.6
19:11 17.9 15.5 86 1020.5 10.7 N 13.0 0.0 0.6
19:12 18.0 15.6 86 1020.5 9.2 SW 13.0 0.0 0.6
19:13 18.0 15.6 86 1020.6 8.3 SW 13.0 0.0 0.6
19:14 18.0 15.6 86 1020.7 10.7 SW 13.0 0.0 0.6
19:15 18.0 15.6 86 1020.6 9.8 SW 13.0 0.0 0.6
19:17 18.0 15.6 86 1020.4 8.3 NW 14.5 0.0 0.6
19:18 18.0 15.6 86 1020.5 10.7 SW 14.5 0.0 0.6
19:19 18.0 15.6 86 1020.7 9.8 N 14.5 0.0 0.6
19:20 18.0 15.6 86 1020.7 9.2 NW 14.5 0.0 0.6
19:21 17.9 15.5 86 1020.7 9.8 NW 14.5 0.0 0.6
19:22 18.0 15.6 86 1020.7 9.8 W 14.5 0.0 0.6
19:23 18.0 15.6 86 1020.8 9.8 N 14.5 0.0 0.6
19:24 17.9 15.5 86 1020.8 10.7 NW 14.5 0.0 0.6
19:25 18.0 15.6 86 1020.7 12.1 W 14.5 0.0 0.6
19:26 17.9 15.5 86 1020.8 9.8 SW 13.6 0.0 0.6
19:27 17.9 15.5 86 1020.8 8.3 SW 13.6 0.0 0.6
19:28 17.9 15.5 86 1020.8 9.2 W 13.6 0.0 0.6
19:29 17.9 15.5 86 1020.7 7.6 SW 13.6 0.0 0.6
19:30 17.9 15.5 86 1020.7 7.6 SW 13.6 0.0 0.6
19:31 17.9 15.5 86 1020.8 13.0 SW 13.6 0.0 0.6
19:32 17.9 15.5 86 1020.8 9.2 SW 13.6 0.0 0.6
19:33 17.9 15.5 86 1020.7 6.0 W 13.6 0.0 0.6
19:34 17.9 15.5 86 1020.7 7.6 WSW 13.6 0.0 0.6
19:35 17.9 15.5 86 1020.7 8.3 SW 13.0 0.0 0.6
19:36 17.9 15.5 86 1020.4 8.3 SW 13.0 0.0 0.6
19:37 17.9 15.5 86 1020.7 9.2 NW 13.0 0.0 0.6
19:38 17.9 15.5 86 1020.4 6.9 NW 13.0 0.0 0.6
19:39 17.9 15.5 86 1020.6 7.6 W 13.0 0.0 0.6
19:40 17.9 15.5 86 1020.6 7.6 W 13.0 0.0 0.6
19:42 17.9 15.5 86 1020.6 8.3 WSW 9.2 0.0 0.6
19:43 17.8 15.4 86 1020.5 7.6 WNW 9.2 0.0 0.6
19:44 17.8 15.4 86 1020.7 6.9 SW 9.2 0.0 0.6
19:45 17.8 15.4 86 1020.6 12.1 SW 12.1 0.0 0.6
19:46 17.8 15.4 86 1020.5 10.7 SW 12.1 0.0 0.6
19:47 17.8 15.4 86 1020.4 8.3 W 12.1 0.0 0.6
19:48 17.8 15.4 86 1020.7 10.7 WSW 12.1 0.0 0.6
19:49 17.8 15.4 86 1020.7 10.7 SW 13.0 0.0 0.6
19:50 17.8 15.4 86 1020.8 10.7 SW 13.0 0.0 0.6
19:51 17.8 15.4 86 1020.6 7.6 W 13.0 0.0 0.6
19:52 17.8 15.6 87 1020.7 9.2 W 13.0 0.0 0.6
19:53 17.8 15.6 87 1020.7 9.2 W 13.0 0.0 0.6
19:54 17.8 15.6 87 1020.6 8.3 W 13.0 0.0 0.6
19:55 17.7 15.5 87 1020.6 7.6 SSW 13.0 0.0 0.6
19:56 17.7 15.5 87 1020.7 6.9 SW 13.0 0.0 0.6
19:57 17.7 15.5 87 1020.7 6.9 SW 13.0 0.0 0.6
19:58 17.7 15.5 87 1020.8 8.3 WSW 13.0 0.0 0.6
19:59 17.7 15.5 87 1020.8 9.8 SW 10.7 0.0 0.6
20:00 17.7 15.5 87 1020.8 7.6 SW 10.7 0.0 0.6
20:01 17.7 15.5 87 1020.8 7.6 SW 9.8 0.0 0.6
20:02 17.7 15.5 87 1020.6 7.6 SW 9.8 0.0 0.6
20:03 17.7 15.5 87 1020.7 7.6 N 9.8 0.0 0.6
20:04 17.6 15.4 87 1020.7 6.0 SW 9.8 0.0 0.6
20:05 17.6 15.4 87 1020.8 7.6 SW 9.8 0.0 0.6
20:07 17.6 15.4 87 1020.8 8.3 NW 9.8 0.0 0.6
20:08 17.6 15.4 87 1020.9 9.2 SW 9.8 0.0 0.6
20:09 17.5 15.3 87 1020.8 6.9 SW 9.2 0.0 0.6
20:10 17.5 15.3 87 1020.8 11.4 SW 11.4 0.0 0.6
20:11 17.5 15.3 87 1020.8 8.3 SW 11.4 0.0 0.6
20:12 17.5 15.3 87 1020.8 6.0 W 11.4 0.0 0.6
20:13 17.5 15.3 87 1020.8 6.0 W 11.4 0.0 0.6
20:14 17.5 15.3 87 1020.8 9.2 S 11.4 0.0 0.6
20:15 17.4 15.2 87 1020.8 8.3 SW 11.4 0.0 0.6
20:16 17.4 15.2 87 1020.8 7.6 SW 11.4 0.0 0.6
20:17 17.4 15.2 87 1020.7 6.9 S 11.4 0.0 0.6
20:18 17.4 15.2 87 1020.8 6.9 W 11.4 0.0 0.6
20:19 17.4 15.2 87 1021.0 6.0 NW 11.4 0.0 0.6
20:20 17.4 15.2 87 1020.8 7.6 SW 11.4 0.0 0.6
20:21 17.4 15.2 87 1020.9 6.0 W 9.2 0.0 0.6
20:22 17.4 15.2 87 1020.9 5.4 SW 9.2 0.0 0.6
20:23 17.4 15.2 87 1020.9 8.3 SW 9.2 0.0 0.6
20:24 17.4 15.2 87 1020.8 6.9 SW 9.2 0.0 0.6
20:25 17.4 15.2 87 1020.9 7.6 WSW 8.3 0.0 0.6
20:26 17.4 15.2 87 1020.9 8.3 SW 8.3 0.0 0.6
20:27 17.3 15.1 87 1020.8 10.7 SW 10.7 0.0 0.6
20:30 17.3 15.1 87 1021.0 6.0 NW 10.7 0.0 0.6
20:31 17.3 15.1 87 1020.8 9.8 SW 10.7 0.0 0.6
20:32 17.3 15.1 87 1020.9 7.6 SW 10.7 0.0 0.6
20:33 17.3 15.1 87 1020.9 7.6 SW 10.7 0.0 0.6
20:34 17.2 15.0 87 1020.9 6.9 NW 10.7 0.0 0.6
20:35 17.2 15.0 87 1021.0 6.9 SW 10.7 0.0 0.6
20:36 17.2 15.0 87 1021.1 6.9 W 10.7 0.0 0.6
20:37 17.2 15.0 87 1021.0 5.4 SW 9.8 0.0 0.6
20:38 17.1 14.9 87 1020.9 6.9 S 9.8 0.0 0.6
20:39 17.1 14.9 87 1021.0 6.0 S 9.8 0.0 0.6
20:40 17.1 14.9 87 1021.1 8.3 W 9.8 0.0 0.6
20:41 17.1 14.9 87 1021.0 6.9 NW 8.3 0.0 0.6
20:42 17.0 14.8 87 1021.1 5.4 SW 8.3 0.0 0.6
20:43 17.0 14.8 87 1020.9 6.0 W 8.3 0.0 0.6
20:44 17.0 14.8 87 1021.0 4.5 SW 8.3 0.0 0.6
20:45 17.0 14.8 87 1021.0 6.9 W 8.3 0.0 0.6
20:46 16.9 14.7 87 1020.9 6.9 SSW 8.3 0.0 0.6
20:47 16.9 14.7 87 1021.1 5.4 SW 8.3 0.0 0.6
20:48 16.9 14.7 87 1021.0 8.3 SW 8.3 0.0 0.6
20:49 16.9 14.9 88 1021.1 8.3 NW 8.3 0.0 0.6
20:50 16.9 14.9 88 1021.2 8.3 N 8.3 0.0 0.6
20:51 16.8 14.8 88 1021.1 6.9 W 8.3 0.0 0.6
20:52 16.8 14.8 88 1021.2 5.4 SW 8.3 0.0 0.6
20:54 16.8 14.8 88 1021.0 6.9 SW 8.3 0.0 0.6
20:55 16.8 14.8 88 1021.0 6.9 SW 8.3 0.0 0.6
20:56 16.8 14.8 88 1021.0 6.0 S 8.3 0.0 0.6
20:57 16.8 14.8 88 1021.1 4.5 SW 8.3 0.0 0.6
20:58 16.8 14.8 88 1021.1 6.0 SW 8.3 0.0 0.6
20:59 16.8 14.8 88 1021.1 6.0 SW 8.3 0.0 0.6
21:00 16.8 14.8 88 1021.2 5.4 SW 8.3 0.0 0.6
21:01 16.8 14.8 88 1021.0 5.4 SW 6.9 0.0 0.6
21:02 16.8 14.8 88 1021.1 5.4 SW 6.9 0.0 0.6
21:03 16.8 14.8 88 1021.2 5.4 SW 6.9 0.0 0.6
21:04 16.8 14.8 88 1021.1 5.4 SW 6.9 0.0 0.6
21:05 16.8 14.8 88 1021.0 5.4 SW 6.0 0.0 0.6
21:06 16.8 15.0 89 1021.1 6.0 SW 6.0 0.0 0.6
21:07 16.8 15.0 89 1021.2 6.0 SW 6.0 0.0 0.6
21:08 16.8 15.0 89 1021.3 6.0 SW 6.0 0.0 0.6
21:09 16.8 15.0 89 1021.2 5.4 W 6.0 0.0 0.6
21:10 16.8 15.0 89 1021.2 3.8 SW 8.3 0.0 0.6
21:11 16.8 15.0 89 1021.2 5.4 W 8.3 0.0 0.6
21:12 16.8 15.0 89 1021.2 6.0 S 8.3 0.0 0.6
21:13 16.8 15.0 89 1021.2 6.0 S 8.3 0.0 0.6
21:14 16.8 15.0 89 1021.3 4.5 W 8.3 0.0 0.6
21:15 16.8 15.0 89 1021.3 6.9 SW 8.3 0.0 0.6
21:16 16.8 15.0 89 1021.3 6.9 SW 8.3 0.0 0.6
21:17 16.8 15.0 89 1021.4 4.5 SW 8.3 0.0 0.6
21:18 16.8 15.0 89 1021.2 4.5 SW 8.3 0.0 0.6
21:19 16.8 15.0 89 1021.2 6.0 S 8.3 0.0 0.6
21:20 16.8 15.0 89 1021.3 5.4 W 6.9 0.0 0.6
21:22 16.8 15.0 89 1021.3 4.5 SW 6.9 0.0 0.6
21:23 16.7 14.9 89 1021.3 4.5 SW 6.9 0.0 0.6
21:24 16.7 14.9 89 1021.3 6.9 SW 6.9 0.0 0.6
21:25 16.7 14.9 89 1021.2 6.9 W 6.9 0.0 0.6
21:26 16.7 14.9 89 1021.2 6.9 WSW 6.9 0.0 0.6
21:27 16.7 14.9 89 1021.3 5.4 SW 6.9 0.0 0.6
21:28 16.7 14.9 89 1021.2 7.6 SW 7.6 0.0 0.6
21:29 16.6 14.8 89 1021.3 3.8 WSW 7.6 0.0 0.6
21:30 16.6 14.8 89 1021.2 6.0 SW 7.6 0.0 0.6
21:31 16.6 14.8 89 1021.2 6.0 SW 7.6 0.0 0.6
21:32 16.6 14.8 89 1021.3 4.5 S 7.6 0.0 0.6
21:33 16.6 14.8 89 1021.2 4.5 SW 7.6 0.0 0.6
21:34 16.6 14.8 89 1021.1 4.5 SW 7.6 0.0 0.6
21:35 16.5 14.7 89 1021.2 5.4 SW 7.6 0.0 0.6
21:36 16.5 14.7 89 1021.1 6.0 S 7.6 0.0 0.6
21:37 16.5 14.7 89 1021.4 6.0 W 7.6 0.0 0.6
21:38 16.4 14.6 89 1021.3 6.0 S 7.6 0.0 0.6
21:39 16.4 14.6 89 1021.2 5.4 S 6.0 0.0 0.6
21:40 16.4 14.6 89 1021.3 4.5 SW 6.0 0.0 0.6
21:41 16.4 14.6 89 1021.2 4.5 S 6.0 0.0 0.6
21:42 16.4 14.6 89 1021.2 5.4 SW 6.0 0.0 0.6
21:43 16.3 14.5 89 1021.2 4.5 SW 6.0 0.0 0.6
21:44 16.3 14.5 89 1021.2 3.8 W 6.0 0.0 0.6
21:45 16.3 14.5 89 1021.3 4.5 W 6.0 0.0 0.6
21:46 16.3 14.5 89 1021.2 7.6 WSW 7.6 0.0 0.6
21:47 16.3 14.7 90 1021.2 4.5 WNW 7.6 0.0 0.6
21:48 16.2 14.6 90 1021.3 5.4 SW 7.6 0.0 0.6
21:49 16.3 14.7 90 1021.2 6.0 SW 7.6 0.0 0.6
21:50 16.2 14.6 90 1021.3 5.4 S 7.6 0.0 0.6
21:51 16.2 14.6 90 1021.2 4.5 SW 7.6 0.0 0.6
21:52 16.2 14.6 90 1021.3 5.4 SW 7.6 0.0 0.6
21:53 16.2 14.6 90 1021.3 5.4 WSW 7.6 0.0 0.6
21:54 16.2 14.6 90 1021.2 5.4 SW 7.6 0.0 0.6
21:55 16.2 14.6 90 1021.0 6.0 SW 7.6 0.0 0.6
21:56 16.2 14.6 90 1021.2 3.8 SW 6.0 0.0 0.6
21:57 16.2 14.6 90 1021.2 4.5 S 6.0 0.0 0.6
21:58 16.2 14.6 90 1021.2 5.4 SW 6.0 0.0 0.6
21:59 16.2 14.6 90 1021.3 5.4 SW 6.0 0.0 0.6
22:00 16.2 14.6 90 1021.3 5.4 SW 6.0 0.0 0.6
22:01 16.2 14.6 90 1021.2 5.4 SW 6.0 0.0 0.6
22:02 16.2 14.6 90 1021.1 5.4 SW 6.0 0.0 0.6
22:03 16.2 14.6 90 1021.3 5.4 SW 6.0 0.0 0.6
22:04 16.2 14.6 90 1021.3 5.4 SW 6.0 0.0 0.6
22:05 16.2 14.6 90 1021.3 5.4 SW 5.4 0.0 0.6
22:06 16.2 14.7 91 1021.2 5.4 SSW 5.4 0.0 0.6
22:07 16.2 14.7 91 1021.3 5.4 SW 5.4 0.0 0.6
22:08 16.2 14.7 91 1021.4 6.0 SW 6.0 0.0 0.6
22:09 16.2 14.7 91 1021.3 4.5 SW 6.0 0.0 0.6
22:10 16.2 14.7 91 1021.2 6.0 S 6.0 0.0 0.6
22:11 16.2 14.7 91 1021.2 5.4 SW 6.0 0.0 0.6
22:12 16.2 14.7 91 1021.2 4.5 SW 6.0 0.0 0.6
22:13 16.2 14.7 91 1021.2 4.5 S 6.0 0.0 0.6
22:14 16.2 14.7 91 1021.1 4.5 SW 6.0 0.0 0.6
22:15 16.2 14.7 91 1021.2 3.8 S 6.0 0.0 0.6
22:16 16.2 14.7 91 1021.1 5.4 SW 6.0 0.0 0.6
22:17 16.2 14.7 91 1021.2 5.4 SW 6.0 0.0 0.6
22:18 16.2 14.7 91 1021.2 4.5 SW 6.0 0.0 0.6
22:19 16.2 14.7 91 1021.1 5.4 SW 6.0 0.0 0.6
22:20 16.2 14.7 91 1021.2 5.4 S 6.0 0.0 0.6
22:21 16.1 14.6 91 1021.2 5.4 S 6.0 0.0 0.6
22:22 16.2 14.7 91 1021.0 4.5 SW 6.0 0.0 0.6
22:23 16.1 14.6 91 1021.0 5.4 SW 6.0 0.0 0.6
22:25 16.1 14.6 91 1020.9 5.4 S 6.0 0.0 0.6
22:26 16.1 14.6 91 1021.0 5.4 SW 6.0 0.0 0.6
22:27 16.1 14.8 92 1021.0 4.5 SW 6.9 0.0 0.6
22:28 16.1 14.8 92 1021.1 4.5 SW 6.9 0.0 0.6
22:29 16.1 14.8 92 1021.1 4.5 SW 6.9 0.0 0.6
22:30 16.1 14.8 92 1021.1 6.0 WSW 6.9 0.0 0.6
22:31 16.1 14.8 92 1021.2 5.4 S 6.9 0.0 0.6
22:32 16.1 14.8 92 1021.0 6.0 WSW 6.9 0.0 0.6
22:33 16.1 14.8 92 1021.0 6.0 WSW 6.9 0.0 0.6
22:34 16.1 14.8 92 1021.1 5.4 S 6.9 0.0 0.6
22:35 16.1 14.8 92 1020.9 6.9 SW 6.9 0.0 0.6
22:36 16.1 14.8 92 1021.2 7.6 SW 7.6 0.0 0.6
22:37 16.1 14.8 92 1021.0 5.4 S 7.6 0.0 0.6
22:38 16.1 14.8 92 1021.1 5.4 SW 7.6 0.0 0.6
22:39 16.1 14.8 92 1020.9 5.4 SW 7.6 0.0 0.6
22:40 16.1 14.8 92 1021.0 5.4 SW 7.6 0.0 0.6
22:41 16.1 14.8 92 1021.1 6.9 SW 7.6 0.0 0.6
22:42 16.1 14.8 92 1021.2 4.5 S 7.6 0.0 0.6
22:43 16.1 14.8 92 1021.2 6.9 SW 7.6 0.0 0.6
22:44 16.1 14.8 92 1021.1 9.2 SW 9.2 0.0 0.6
22:45 16.1 15.0 93 1021.1 6.9 SW 9.2 0.0 0.6
22:46 16.1 15.0 93 1021.0 6.0 S 9.2 0.0 0.6
22:47 16.1 15.0 93 1021.0 8.3 SSW 9.2 0.0 0.6
22:48 16.1 15.0 93 1021.0 6.9 S 9.2 0.0 0.6
22:49 16.2 15.1 93 1021.2 6.9 SW 9.2 0.0 0.6
22:50 16.1 15.0 93 1021.1 6.9 S 9.2 0.0 0.6
22:51 16.2 15.1 93 1021.1 8.3 SW 9.2 0.0 0.6
22:52 16.2 15.1 93 1021.2 8.3 SW 9.2 0.0 0.6
22:53 16.2 15.1 93 1021.2 6.9 SW 9.2 0.0 0.6
22:54 16.2 15.1 93 1021.1 9.8 S 9.8 0.0 0.6
22:55 16.2 15.1 93 1021.1 6.0 W 9.8 0.0 0.6
22:56 16.2 15.1 93 1021.1 5.4 SW 9.8 0.0 0.6
22:57 16.2 15.1 93 1020.8 5.4 SW 11.4 0.0 0.6
22:58 16.2 15.1 93 1021.0 6.9 SW 11.4 0.0 0.6
23:00 16.3 15.3 94 1021.1 8.3 SW 11.4 0.0 0.6
23:01 16.2 15.2 94 1021.0 7.6 W 11.4 0.0 0.6
23:02 16.2 15.2 94 1021.0 7.6 W 11.4 0.0 0.6
23:04 16.2 15.2 94 1021.0 7.6 W 11.4 0.0 0.6
23:05 16.2 15.2 94 1021.0 7.6 W 11.4 0.0 0.6
23:06 16.3 15.3 94 1021.1 7.6 SSW 11.4 0.0 0.6
23:07 16.3 15.3 94 1021.0 7.6 SW 8.3 0.0 0.6
23:08 16.4 15.4 94 1021.0 5.4 S 8.3 0.0 0.6
23:09 16.4 15.4 94 1021.0 9.2 S 9.2 0.0 0.6
23:10 16.4 15.4 94 1020.9 7.6 SW 9.2 0.0 0.6
23:11 16.4 15.4 94 1021.1 9.2 WSW 9.2 0.0 0.6
23:12 16.4 15.4 94 1021.0 7.6 S 9.2 0.0 0.6
23:13 16.4 15.4 94 1021.0 7.6 S 9.2 0.0 0.6
23:14 16.4 15.4 94 1021.0 6.0 SW 9.2 0.0 0.6
23:15 16.4 15.4 94 1021.0 7.6 NW 9.2 0.0 0.6
23:16 16.4 15.6 95 1021.0 9.8 SE 9.8 0.0 0.6
23:17 16.4 15.6 95 1020.9 6.9 SW 9.8 0.0 0.6
23:18 16.4 15.6 95 1020.9 9.2 SW 9.8 0.0 0.6
23:19 16.4 15.6 95 1021.0 6.9 SW 9.8 0.0 0.6
23:20 16.4 15.6 95 1021.0 6.9 SW 9.8 0.0 0.6
23:21 16.4 15.6 95 1020.9 8.3 SW 9.8 0.0 0.6
23:22 16.4 15.6 95 1021.0 8.3 SW 9.8 0.0 0.6
23:23 16.4 15.6 95 1021.1 6.9 WSW 9.8 0.0 0.6
23:24 16.4 15.6 95 1021.0 7.6 W 9.8 0.0 0.6
23:25 16.5 15.7 95 1021.0 7.6 WNW 9.8 0.0 0.6
23:26 16.4 15.6 95 1020.9 9.8 S 9.8 0.0 0.6
23:27 16.4 15.6 95 1020.8 6.9 WSW 9.8 0.0 0.6
23:28 16.4 15.6 95 1021.0 6.0 NW 9.8 0.0 0.6
23:29 16.4 15.6 95 1020.9 8.3 S 9.8 0.0 0.6
23:30 16.4 15.6 95 1020.9 8.3 S 9.8 0.0 0.6
23:31 16.3 15.5 95 1021.0 6.9 SW 9.8 0.0 0.6
23:32 16.3 15.5 95 1020.9 6.9 SW 9.8 0.0 0.6
23:33 16.3 15.5 95 1020.9 7.6 SW 9.8 0.0 0.6
23:34 16.3 15.5 95 1020.9 7.6 W 9.8 0.0 0.6
23:35 16.3 15.5 95 1021.0 8.3 S 9.8 0.0 0.6
23:36 16.3 15.5 95 1020.9 9.2 SW 9.8 0.0 0.6
23:37 16.3 15.5 95 1021.0 7.6 WSW 9.8 0.0 0.6
23:39 16.3 15.5 95 1020.9 6.9 WSW 9.8 0.0 0.6
23:40 16.3 15.5 95 1020.9 6.9 SW 9.8 0.0 0.6
23:41 16.3 15.5 95 1020.9 7.6 SW 9.8 0.0 0.6
23:42 16.3 15.7 96 1020.9 10.7 SW 10.7 0.0 0.6
23:43 16.3 15.7 96 1020.8 7.6 SSW 10.7 0.0 0.6
23:44 16.2 15.6 96 1020.9 7.6 S 10.7 0.0 0.6
23:45 16.2 15.6 96 1020.8 7.6 WSW 10.7 0.0 0.6
23:46 16.2 15.6 96 1020.8 8.3 SW 10.7 0.0 0.6
23:47 16.2 15.6 96 1020.8 7.6 SW 10.7 0.0 0.6
23:48 16.2 15.6 96 1020.9 7.6 SW 10.7 0.0 0.6
23:49 16.2 15.6 96 1020.8 9.8 S 10.7 0.0 0.6
23:50 16.2 15.6 96 1020.7 6.9 SW 10.7 0.0 0.6
23:51 16.2 15.6 96 1020.8 6.9 SW 10.7 0.0 0.6
23:52 16.2 15.6 96 1020.8 6.0 NW 10.7 0.0 0.6
23:53 16.2 15.6 96 1020.8 6.0 NW 9.8 0.0 0.6
23:54 16.1 15.5 96 1021.0 7.6 S 9.8 0.0 0.6
23:55 16.1 15.5 96 1021.0 6.0 SW 9.8 0.0 0.6
23:56 16.1 15.5 96 1020.8 7.6 SW 9.8 0.0 0.6
23:57 16.1 15.5 96 1020.7 6.9 SW 9.8 0.0 0.6
23:58 16.1 15.5 96 1021.0 7.6 SW 9.8 0.0 0.6
23:59 16.1 15.5 96 1020.8 6.0 SW 9.8 0.0 0.6

UK - WEATHER STATION TOPSITES - UK World Weather Websites

This is a private weather station, never base important decisions or events on data from this weather station. Although every effort has been made to make the data as accurate as possible it does not meet MetOffice standards. It is proved as a guide of local weather conditions. We accept no liability for any loss which may arise from use of the data.

Copyright © Carnkie Weather 2009 - 2018.